GFSMW_700_temp_159.txt.gz
Temp
4 4 3 3 3 3 2 2 2 3 3 4 4 4 4 4 3 3 3 3 3 3 3 4 4 4 4 4 4 5 4 5 5 4 3 4 4 4 4 5 5 5 6
2 2 2 2 3 3 2 2 2 3 3 3 3 3 4 3 3 3 2 3 2 2 2 3 4 3 3 3 4 4 3 4 3 4 3 3 3 3 3 4 5 5 5
1 1 1 1 1 2 2 2 2 2 2 2 2 2 2 2 2 2 1 0 1 1 2 2 2 3 3 3 3 3 4 3 4 2 2 2 2 3 3 3 3 2 3
-0 -1 -1 -0 0 1 1 1 1 1 1 1 0 0 0 1 1 1 0 -0 -0 -0 0 1 1 2 2 3 2 2 3 3 3 3 3 2 2 2 2 3 3 3 2
-1 -1 -1 -1 -1 -1 -0 -0 -0 -0 0 -0 -0 -1 -1 -1 -1 -2 -1 -1 -1 -2 -1 -1 -1 1 1 1 2 2 3 2 2 2 5 3 3 2 2 2 3 2 2
-2 -2 -2 -1 -1 -1 -1 -1 -1 -1 -1 -1 -1 -1 -1 -2 -2 -2 -2 -2 -2 -2 -2 -2 -2 -1 -1 1 1 1 2 2 2 3 3 3 4 3 1 2 3 2 3
-3 -2 -2 -1 -1 -2 -2 -1 -1 -1 -1 -1 -1 -2 -2 -2 -2 -2 -3 -3 -2 -2 -2 -2 -2 -2 -1 -1 0 1 1 2 2 2 2 3 3 2 3 1 1 2 2
-2 -2 -2 -2 -2 -2 -2 -2 -2 -2 -2 -2 -2 -3 -3 -3 -3 -4 -4 -4 -4 -3 -3 -3 -4 -4 -2 -1 -1 -0 1 2 1 1 2 2 2 1 1 2 1 2 1
-3 -3 -2 -3 -3 -3 -3 -3 -3 -3 -4 -4 -4 -4 -4 -4 -4 -5 -5 -5 -5 -5 -5 -5 -4 -4 -4 -3 -2 -0 -0 0 1 1 1 2 2 2 1 2 2 2 1
-3 -3 -3 -3 -3 -3 -3 -4 -4 -5 -5 -5 -5 -5 -5 -5 -5 -5 -6 -6 -6 -6 -6 -6 -6 -6 -6 -4 -3 -1 -1 -0 0 1 0 1 1 2 2 1 1 1 2
-3 -4 -4 -4 -3 -3 -4 -4 -5 -6 -6 -6 -6 -6 -6 -6 -6 -6 -6 -7 -7 -7 -7 -7 -7 -7 -6 -6 -5 -3 -3 -2 -2 0 0 1 1 1 2 2 2 1 2
-4 -4 -4 -4 -4 -4 -5 -5 -6 -6 -6 -6 -6 -6 -6 -6 -6 -6 -7 -7 -8 -8 -8 -8 -8 -7 -7 -6 -6 -5 -3 -2 -2 -1 -0 0 1 1 1 2 2 3 3
-4 -4 -4 -4 -5 -5 -6 -6 -6 -6 -6 -6 -6 -7 -6 -6 -7 -7 -7 -7 -8 -9 -8 -8 -8 -8 -7 -7 -6 -5 -4 -4 -2 -2 -1 -0 0 0 1 1 2 2 2
-5 -5 -5 -5 -5 -6 -6 -6 -6 -6 -7 -7 -7 -7 -7 -7 -7 -7 -7 -7 -7 -9 -9 -8 -8 -8 -7 -7 -7 -6 -5 -4 -2 -2 -1 -1 -1 -1 1 1 1 1 1
-5 -5 -6 -6 -6 -7 -7 -6 -7 -7 -7 -7 -7 -7 -7 -7 -7 -7 -7 -7 -8 -7 -9 -9 -8 -8 -8 -7 -7 -7 -6 -5 -4 -3 -1 -0 -1 -1 0 1 0 1 0
-6 -6 -6 -7 -7 -7 -7 -7 -7 -7 -7 -7 -7 -7 -7 -7 -7 -7 -8 -8 -8 -8 -8 -9 -9 -8 -8 -7 -7 -7 -6 -5 -5 -4 -2 -3 -2 -1 -1 0 0 0 -0
-6 -6 -7 -7 -7 -7 -7 -7 -7 -7 -7 -7 -7 -7 -7 -7 -7 -8 -8 -8 -8 -8 -8 -8 -7 -8 -8 -8 -7 -7 -7 -6 -6 -5 -3 -3 -1 -1 -1 -0 0 0 -0
-7 -7 -8 -8 -8 -8 -7 -7 -7 -7 -7 -7 -7 -8 -7 -7 -7 -8 -8 -8 -9 -8 -8 -8 -8 -8 -8 -8 -7 -7 -7 -7 -7 -6 -5 -5 -3 -1 -1 -1 -0 -0 -0
-7 -8 -8 -8 -8 -8 -8 -8 -8 -8 -8 -8 -8 -8 -8 -7 -7 -8 -8 -9 -9 -9 -8 -8 -8 -8 -7 -7 -7 -7 -7 -7 -7 -7 -6 -5 -4 -4 -1 -2 -2 -1 0
-8 -8 -8 -8 -8 -8 -8 -8 -8 -8 -8 -8 -8 -8 -8 -8 -8 -7 -8 -8 -9 -9 -9 -8 -8 -8 -8 -7 -7 -7 -8 -7 -7 -6 -7 -6 -7 -5 -4 -2 -2 -1 -1
-8 -9 -9 -9 -8 -8 -8 -8 -8 -8 -8 -8 -8 -9 -8 -8 -8 -8 -8 -8 -9 -9 -9 -10 -9 -8 -8 -8 -7 -7 -7 -7 -6 -6 -6 -7 -6 -5 -3 -3 -3 -2 -2
-9 -9 -9 -9 -9 -9 -9 -9 -9 -9 -9 -9 -9 -9 -9 -9 -9 -8 -8 -8 -8 -9 -9 -10 -10 -9 -9 -8 -7 -7 -6 -6 -6 -6 -6 -6 -7 -5 -3 -2 -2 -2 -1
-9 -9 -9 -9 -9 -9 -9 -9 -9 -9 -9 -10 -10 -10 -9 -9 -9 -9 -9 -8 -9 -9 -9 -10 -10 -10 -10 -9 -9 -9 -8 -7 -7 -6 -5 -5 -5 -5 -4 -3 -2 -2 -1
-10 -10 -10 -10 -9 -9 -9 -9 -9 -10 -10 -10 -10 -10 -10 -10 -10 -10 -10 -10 -9 -9 -9 -9 -9 -9 -9 -10 -10 -9 -9 -8 -7 -7 -6 -5 -5 -5 -4 -4 -3 -2 -1
-10 -10 -10 -10 -9 -9 -10 -10 -10 -10 -10 -11 -11 -11 -11 -11 -11 -11 -11 -11 -11 -10 -10 -9 -9 -9 -10 -10 -9 -9 -9 -8 -8 -8 -7 -7 -6 -5 -5 -4 -3 -2 -2
-10 -10 -10 -10 -10 -10 -10 -10 -10 -10 -10 -11 -11 -11 -11 -12 -12 -12 -12 -13 -12 -13 -12 -12 -12 -11 -11 -11 -10 -10 -10 -10 -9 -9 -8 -8 -7 -6 -5 -5 -5 -4 -4

GFSMW_700_temp_162.txt.gz
Temp
4 3 3 2 2 2 2 2 2 2 2 2 3 3 2 2 2 3 3 3 2 3 3 3 3 3 4 4 4 3 3 4 3 4 5 5 4 4 4 4 5 5 5
3 2 2 1 1 1 2 2 2 2 2 2 2 2 2 2 2 2 2 2 1 1 1 2 3 2 2 3 3 4 3 4 3 2 2 3 4 3 3 4 5 5 5
1 1 0 -0 -0 -0 0 1 1 1 1 0 1 1 1 1 1 1 1 0 0 -0 -1 -0 0 1 1 1 2 3 3 3 3 3 3 3 3 1 4 3 4 4 4
1 -0 -1 -1 -1 -1 -1 -1 -1 -1 -0 0 0 0 1 1 0 0 -0 -1 -1 -1 -1 -1 -1 -1 -0 1 0 1 2 2 3 3 3 2 2 1 2 3 4 3 3
-1 -1 -2 -2 -2 -2 -2 -2 -1 -1 -1 -0 -0 -0 -0 -0 -0 -1 -1 -1 -1 -2 -2 -2 -2 -2 -2 -1 -1 -0 -0 1 2 2 3 2 2 2 2 3 2 2 2
-1 -2 -2 -2 -2 -2 -2 -2 -2 -1 -1 -1 -1 -1 -1 -1 -1 -1 -2 -2 -2 -3 -3 -3 -3 -2 -2 -2 -2 -2 -1 -1 -0 1 2 3 2 2 2 2 1 1 2
-2 -3 -3 -2 -2 -3 -2 -2 -2 -2 -2 -2 -2 -2 -2 -2 -3 -3 -3 -3 -4 -4 -4 -4 -4 -3 -3 -3 -3 -2 -2 -1 -1 -1 1 1 2 2 2 2 2 1 1
-3 -3 -3 -3 -3 -3 -3 -3 -3 -3 -3 -3 -3 -4 -4 -4 -4 -5 -5 -4 -4 -4 -5 -5 -5 -5 -5 -4 -4 -3 -3 -3 -2 -1 -1 0 1 1 2 1 1 0 3
-3 -3 -3 -3 -3 -3 -3 -3 -3 -3 -3 -4 -4 -5 -5 -5 -5 -5 -5 -5 -5 -5 -6 -6 -6 -6 -6 -6 -5 -5 -4 -4 -3 -2 -2 -1 0 1 1 0 1 1 3
-3 -3 -3 -3 -4 -4 -4 -3 -4 -4 -4 -5 -5 -5 -5 -5 -5 -5 -5 -5 -5 -6 -6 -7 -7 -6 -6 -6 -7 -7 -6 -5 -5 -4 -3 -2 -1 0 0 0 1 2 3
-3 -3 -3 -4 -4 -4 -4 -4 -5 -5 -5 -5 -5 -5 -5 -5 -5 -5 -5 -5 -6 -6 -6 -7 -8 -7 -7 -8 -7 -7 -7 -6 -6 -5 -4 -4 -3 -1 0 -0 1 1 2
-3 -3 -4 -4 -4 -4 -5 -5 -6 -5 -5 -5 -5 -5 -6 -6 -6 -5 -5 -6 -6 -6 -6 -7 -8 -8 -8 -8 -8 -7 -7 -7 -6 -5 -4 -5 -3 -1 -0 -1 0 1 1
-3 -4 -4 -5 -5 -5 -6 -6 -6 -6 -6 -6 -6 -6 -6 -6 -6 -6 -6 -6 -6 -6 -7 -7 -7 -8 -8 -8 -8 -8 -7 -7 -6 -6 -4 -3 -2 -1 -1 -1 0 1 1
-4 -5 -5 -5 -5 -6 -6 -6 -6 -6 -6 -6 -6 -6 -6 -6 -6 -6 -6 -6 -6 -7 -7 -7 -7 -8 -8 -9 -8 -8 -7 -7 -7 -6 -5 -4 -3 -1 -1 -1 -0 0 1
-5 -5 -5 -6 -6 -7 -7 -7 -7 -7 -7 -7 -6 -6 -6 -6 -6 -6 -6 -6 -7 -8 -8 -8 -8 -8 -8 -8 -8 -8 -7 -7 -7 -6 -5 -6 -3 -4 -1 -2 -0 0 0
-5 -6 -6 -7 -7 -7 -7 -7 -7 -7 -7 -7 -7 -7 -7 -7 -7 -7 -7 -7 -7 -8 -8 -8 -8 -8 -8 -8 -9 -9 -7 -7 -7 -7 -6 -5 -4 -3 -2 -2 -1 -1 -1
-6 -6 -7 -7 -7 -8 -8 -8 -7 -7 -7 -7 -7 -7 -7 -7 -7 -7 -7 -7 -7 -8 -9 -9 -8 -8 -8 -8 -8 -8 -8 -7 -7 -7 -7 -6 -5 -3 -2 -2 -1 -2 -1
-6 -7 -7 -8 -8 -8 -8 -8 -8 -8 -8 -8 -8 -8 -8 -8 -8 -8 -8 -8 -8 -8 -8 -9 -9 -9 -8 -8 -8 -8 -8 -8 -8 -7 -7 -7 -6 -5 -3 -2 -2 -2 -1
-7 -8 -8 -8 -8 -8 -8 -8 -8 -8 -8 -8 -8 -8 -8 -8 -8 -8 -8 -8 -8 -8 -8 -8 -8 -9 -9 -9 -8 -8 -8 -8 -8 -8 -7 -6 -7 -6 -4 -4 -2 -2 -1
-8 -8 -8 -8 -9 -9 -9 -9 -9 -9 -9 -9 -9 -9 -8 -9 -9 -9 -9 -9 -9 -9 -9 -9 -9 -9 -9 -9 -9 -8 -8 -8 -8 -8 -8 -7 -7 -7 -6 -5 -4 -2 -4
-8 -8 -9 -9 -9 -9 -9 -9 -9 -9 -9 -9 -9 -9 -9 -9 -9 -9 -9 -9 -9 -10 -10 -10 -10 -10 -9 -9 -9 -9 -8 -8 -8 -8 -7 -8 -7 -7 -7 -7 -7 -6 -6
-8 -9 -9 -9 -9 -9 -9 -9 -9 -9 -9 -9 -9 -10 -10 -10 -10 -10 -9 -10 -10 -10 -10 -10 -10 -10 -10 -10 -10 -9 -9 -9 -8 -8 -8 -8 -8 -8 -6 -7 -7 -7 -5
-9 -10 -9 -9 -9 -9 -9 -9 -10 -10 -10 -10 -10 -10 -10 -10 -10 -10 -10 -10 -10 -10 -10 -11 -10 -10 -10 -11 -11 -11 -10 -10 -9 -9 -9 -8 -7 -7 -7 -7 -6 -7 -5
-9 -9 -10 -10 -10 -10 -10 -10 -10 -10 -10 -10 -11 -11 -11 -11 -11 -12 -12 -12 -12 -11 -11 -11 -11 -11 -11 -10 -10 -11 -11 -11 -10 -9 -9 -8 -8 -8 -7 -7 -6 -6 -6
-10 -10 -10 -10 -10 -10 -10 -10 -10 -11 -11 -11 -11 -11 -12 -12 -12 -13 -13 -13 -14 -14 -13 -13 -13 -12 -12 -11 -11 -10 -10 -11 -10 -10 -9 -9 -9 -9 -8 -7 -6 -6 -5
-10 -10 -10 -10 -10 -10 -10 -11 -11 -11 -11 -11 -12 -12 -13 -13 -14 -14 -15 -16 -16 -16 -17 -17 -16 -16 -15 -15 -14 -13 -12 -12 -11 -11 -11 -10 -10 -9 -8 -7 -7 -6 -5

GFSMW_700_temp_165.txt.gz
Temp
4 4 3 3 2 2 1 1 1 1 0 1 1 1 1 1 1 1 1 1 1 2 1 1 1 2 3 3 2 3 4 3 3 3 4 4 3 3 5 5 6 5 6
3 3 2 1 1 0 0 0 0 0 0 0 0 0 0 0 1 1 1 1 0 0 0 0 0 0 0 1 1 1 2 3 2 2 3 4 4 3 2 3 4 5 4
3 2 1 0 -0 -1 -1 -1 -1 -1 -1 -1 -1 -0 -0 0 0 0 0 -0 -0 -0 -0 -0 -1 -1 -1 -1 0 1 1 1 1 0 1 2 2 1 2 1 2 3 4
2 1 -0 -1 -1 -1 -1 -1 -2 -1 -1 -1 -1 -1 -0 -1 -1 -1 -1 -1 -1 -1 -2 -2 -2 -2 -2 -2 -2 -1 -0 0 -0 0 -0 0 0 2 1 2 2 1 2
1 0 -1 -2 -2 -2 -2 -2 -2 -2 -2 -2 -2 -1 -1 -1 -1 -2 -2 -2 -2 -3 -3 -3 -3 -3 -3 -3 -3 -2 -2 -2 -1 -1 -1 -0 -0 -1 1 2 2 2 2
1 -1 -2 -2 -2 -2 -2 -2 -2 -2 -2 -2 -2 -2 -2 -2 -2 -2 -2 -3 -3 -3 -4 -4 -4 -4 -4 -4 -4 -3 -3 -3 -2 -2 -2 -2 -1 -1 -1 -0 2 1 2
-0 -2 -2 -2 -3 -3 -3 -3 -3 -3 -3 -3 -3 -3 -3 -3 -3 -3 -3 -4 -4 -4 -4 -4 -4 -4 -5 -5 -5 -5 -4 -4 -3 -3 -3 -2 -2 -2 -1 -1 1 1 1
-1 -2 -3 -3 -3 -3 -3 -3 -3 -3 -3 -3 -4 -4 -4 -4 -4 -4 -4 -4 -4 -4 -4 -4 -5 -5 -5 -6 -6 -5 -5 -5 -4 -4 -4 -3 -3 -3 -2 -2 -1 1 1
-1 -3 -3 -3 -3 -3 -4 -4 -4 -4 -4 -4 -4 -4 -5 -4 -4 -5 -5 -5 -4 -4 -5 -5 -5 -6 -6 -7 -6 -6 -6 -6 -6 -6 -6 -5 -4 -4 -4 -2 -2 -1 0
-1 -3 -3 -3 -4 -4 -4 -4 -4 -4 -5 -5 -5 -5 -5 -5 -5 -5 -5 -5 -5 -5 -5 -5 -6 -6 -6 -6 -7 -7 -7 -7 -7 -6 -6 -6 -5 -4 -4 -3 -2 -3 -1
-2 -3 -3 -4 -4 -4 -4 -4 -4 -5 -5 -5 -5 -5 -5 -6 -6 -6 -5 -5 -5 -5 -5 -5 -6 -6 -6 -6 -7 -8 -8 -7 -7 -6 -6 -6 -6 -6 -5 -4 -3 -2 -1
-2 -3 -3 -4 -4 -4 -5 -5 -5 -5 -6 -6 -6 -6 -6 -6 -6 -6 -6 -5 -5 -5 -5 -6 -6 -6 -6 -6 -7 -7 -8 -7 -7 -6 -6 -7 -6 -6 -5 -5 -3 -2 -1
-2 -3 -3 -4 -4 -5 -5 -5 -6 -6 -6 -6 -6 -6 -6 -6 -6 -6 -6 -6 -6 -6 -6 -6 -6 -7 -7 -7 -7 -7 -8 -8 -7 -7 -7 -7 -7 -5 -5 -5 -3 -3 -2
-3 -3 -4 -5 -5 -6 -6 -6 -6 -7 -7 -7 -7 -7 -7 -7 -6 -6 -6 -6 -6 -6 -6 -6 -7 -7 -7 -7 -7 -8 -7 -8 -8 -7 -7 -7 -7 -7 -6 -5 -4 -3 -2
-3 -4 -5 -6 -6 -6 -6 -6 -7 -7 -7 -7 -7 -7 -7 -7 -7 -7 -7 -7 -7 -7 -7 -7 -7 -8 -8 -8 -8 -7 -7 -7 -8 -8 -8 -8 -8 -7 -7 -5 -4 -3 -2
-4 -5 -6 -6 -6 -6 -7 -7 -7 -7 -8 -8 -8 -8 -8 -8 -7 -7 -7 -7 -7 -7 -7 -7 -7 -8 -8 -8 -8 -8 -8 -7 -7 -8 -8 -8 -8 -8 -7 -6 -4 -3 -2
-5 -6 -6 -6 -6 -7 -7 -7 -8 -8 -8 -8 -8 -8 -8 -8 -8 -8 -8 -8 -8 -8 -8 -8 -7 -8 -8 -8 -8 -9 -8 -8 -7 -7 -8 -8 -8 -8 -7 -7 -5 -4 -3
-6 -6 -6 -7 -7 -8 -8 -8 -8 -8 -8 -8 -8 -8 -8 -8 -8 -8 -8 -8 -8 -8 -8 -8 -8 -8 -8 -8 -8 -8 -9 -9 -9 -8 -7 -8 -8 -8 -7 -7 -6 -6 -3
-6 -7 -7 -7 -8 -8 -8 -8 -8 -8 -8 -9 -9 -8 -8 -8 -8 -8 -8 -8 -9 -9 -9 -9 -8 -8 -9 -8 -8 -8 -9 -9 -9 -9 -8 -8 -8 -8 -7 -7 -7 -5 -3
-7 -7 -8 -8 -8 -8 -8 -8 -9 -9 -9 -9 -9 -9 -9 -9 -9 -9 -9 -9 -9 -9 -9 -9 -9 -9 -9 -9 -9 -9 -9 -9 -9 -9 -9 -8 -8 -8 -8 -7 -7 -6 -5
-8 -8 -8 -8 -9 -9 -9 -9 -9 -9 -9 -9 -9 -9 -9 -9 -9 -10 -10 -10 -10 -10 -10 -10 -10 -10 -10 -10 -10 -10 -9 -9 -10 -9 -9 -9 -9 -8 -8 -8 -7 -7 -6
-8 -8 -8 -9 -9 -9 -9 -9 -9 -9 -9 -9 -10 -10 -10 -10 -10 -10 -11 -11 -11 -11 -11 -11 -11 -11 -11 -11 -11 -11 -10 -10 -11 -10 -10 -9 -9 -8 -8 -8 -8 -7 -7
-8 -9 -9 -9 -9 -9 -10 -10 -10 -10 -10 -10 -10 -10 -10 -11 -11 -11 -12 -12 -12 -13 -13 -13 -13 -13 -13 -12 -12 -13 -13 -12 -11 -11 -11 -10 -10 -9 -8 -8 -8 -7 -7
-9 -9 -9 -10 -10 -10 -10 -10 -10 -10 -10 -11 -11 -11 -11 -12 -12 -13 -13 -14 -14 -15 -15 -15 -16 -15 -15 -15 -14 -13 -13 -13 -13 -12 -12 -11 -10 -9 -9 -8 -8 -7 -7
-9 -10 -10 -10 -10 -10 -10 -10 -10 -11 -11 -11 -11 -12 -12 -13 -14 -14 -15 -16 -16 -17 -17 -18 -18 -17 -17 -17 -16 -16 -15 -15 -14 -14 -13 -12 -12 -12 -11 -10 -9 -7 -7
-10 -10 -10 -10 -10 -10 -10 -10 -11 -11 -11 -11 -12 -13 -13 -14 -15 -16 -17 -17 -18 -18 -18 -19 -19 -19 -19 -19 -19 -18 -17 -17 -16 -15 -15 -14 -13 -12 -12 -11 -10 -9 -8

GFSMW_700_temp_168.txt.gz
Temp
4 4 4 4 3 3 2 1 1 0 -0 -0 -0 -0 -0 0 0 0 1 1 1 1 1 1 0 0 0 0 0 1 1 1 1 2 3 4 4 3 4 4 4 3 4
4 4 3 3 2 2 1 0 -0 -1 -1 -0 -0 -0 -0 -0 0 0 0 0 0 -0 -0 -0 -0 -0 -0 -1 -1 -0 0 0 0 1 1 2 3 2 3 3 4 3 3
4 3 2 2 1 0 -1 -1 -1 -1 -1 -1 -1 -1 -1 -1 -1 -1 -1 -1 -1 -1 -1 -1 -1 -1 -1 -2 -2 -2 -2 -1 -1 -1 -1 0 1 2 2 3 2 3 2
3 2 1 0 -0 -1 -1 -1 -2 -2 -2 -1 -1 -2 -1 -2 -2 -2 -2 -2 -2 -2 -2 -2 -2 -3 -3 -3 -2 -2 -3 -2 -2 -2 -2 -2 -1 -1 2 2 1 1 2
3 2 0 -0 -1 -2 -2 -2 -2 -2 -2 -2 -2 -2 -2 -3 -2 -2 -2 -2 -2 -3 -3 -3 -3 -3 -3 -3 -3 -3 -3 -3 -3 -3 -3 -2 -2 -2 -2 -1 2 1 1
3 2 0 -1 -2 -2 -2 -2 -2 -2 -3 -2 -2 -3 -3 -3 -3 -3 -3 -3 -3 -3 -3 -3 -3 -3 -3 -3 -3 -4 -4 -3 -4 -4 -4 -4 -4 -3 -3 -3 -2 0 2
3 1 -0 -1 -2 -2 -3 -3 -3 -3 -3 -3 -3 -3 -3 -3 -3 -3 -3 -3 -3 -3 -3 -4 -4 -4 -4 -4 -4 -5 -5 -4 -5 -5 -5 -5 -5 -5 -4 -4 -3 -3 -1
3 1 -0 -2 -2 -3 -3 -3 -3 -3 -3 -4 -4 -4 -4 -4 -4 -4 -4 -4 -4 -4 -4 -4 -4 -4 -4 -5 -5 -5 -6 -6 -6 -6 -6 -5 -6 -6 -5 -5 -5 -3 -3
2 1 -1 -2 -3 -3 -3 -3 -3 -4 -4 -4 -4 -5 -5 -5 -5 -4 -4 -4 -4 -4 -4 -4 -4 -5 -5 -5 -5 -6 -6 -6 -7 -7 -6 -7 -7 -7 -6 -6 -6 -6 -4
1 -0 -1 -2 -3 -3 -3 -4 -4 -4 -4 -4 -5 -5 -5 -5 -5 -5 -5 -5 -5 -5 -5 -5 -5 -5 -5 -6 -6 -6 -6 -6 -7 -7 -7 -7 -7 -7 -7 -6 -6 -7 -6
-0 -1 -1 -2 -3 -4 -4 -4 -4 -4 -5 -5 -5 -5 -6 -6 -6 -5 -5 -6 -5 -5 -5 -5 -5 -6 -6 -6 -7 -7 -6 -6 -6 -7 -8 -7 -7 -7 -7 -7 -7 -8 -7
-1 -1 -2 -3 -3 -4 -4 -5 -5 -5 -5 -5 -6 -6 -6 -6 -6 -6 -6 -6 -6 -6 -6 -6 -6 -6 -6 -6 -7 -7 -7 -6 -7 -7 -8 -8 -7 -7 -7 -7 -7 -7 -6
-1 -2 -2 -3 -4 -4 -5 -5 -5 -5 -5 -6 -6 -7 -7 -7 -7 -7 -7 -6 -6 -6 -7 -7 -7 -7 -7 -7 -7 -7 -7 -7 -7 -7 -7 -8 -7 -7 -7 -7 -7 -7 -6
-1 -2 -3 -3 -4 -5 -5 -5 -5 -6 -6 -7 -7 -7 -7 -7 -7 -7 -7 -7 -7 -7 -7 -7 -7 -7 -7 -7 -7 -8 -8 -8 -7 -8 -7 -7 -8 -8 -7 -7 -7 -7 -6
-2 -2 -3 -4 -5 -6 -6 -6 -6 -6 -7 -7 -8 -7 -7 -7 -7 -7 -7 -7 -7 -7 -7 -8 -8 -8 -8 -8 -8 -8 -8 -8 -8 -8 -8 -8 -8 -9 -9 -8 -7 -7 -6
-2 -3 -3 -5 -6 -6 -6 -6 -6 -7 -8 -8 -8 -8 -8 -8 -8 -8 -8 -8 -8 -8 -8 -8 -8 -8 -8 -8 -8 -8 -8 -8 -8 -8 -8 -8 -8 -8 -9 -8 -9 -8 -7
-3 -3 -4 -6 -6 -6 -7 -7 -7 -8 -8 -8 -8 -8 -8 -8 -8 -8 -8 -8 -8 -8 -8 -8 -8 -8 -8 -8 -8 -8 -8 -9 -9 -9 -9 -8 -8 -8 -8 -8 -9 -8 -8
-3 -4 -5 -6 -7 -7 -7 -7 -8 -8 -8 -8 -8 -8 -8 -8 -8 -8 -8 -8 -9 -9 -9 -8 -8 -9 -9 -8 -8 -8 -8 -9 -9 -9 -9 -9 -9 -8 -8 -9 -9 -9 -9
-5 -6 -6 -7 -7 -7 -7 -8 -8 -8 -9 -8 -8 -8 -8 -8 -9 -9 -9 -9 -9 -9 -9 -9 -9 -9 -9 -9 -9 -9 -9 -9 -9 -10 -10 -10 -10 -9 -9 -8 -8 -9 -9
-5 -6 -7 -7 -7 -7 -8 -8 -9 -9 -9 -9 -9 -9 -9 -9 -9 -9 -9 -9 -10 -10 -10 -10 -11 -11 -11 -11 -11 -11 -10 -10 -10 -11 -11 -11 -10 -10 -10 -9 -9 -8 -8
-6 -7 -7 -7 -8 -8 -9 -9 -9 -9 -9 -9 -9 -9 -9 -9 -9 -10 -10 -10 -10 -10 -11 -11 -12 -13 -13 -13 -13 -14 -13 -12 -12 -11 -11 -11 -11 -10 -10 -9 -9 -9 -8
-7 -7 -7 -8 -8 -9 -9 -9 -9 -9 -9 -9 -9 -9 -10 -10 -10 -10 -11 -11 -11 -12 -13 -14 -15 -15 -15 -15 -15 -15 -15 -15 -14 -13 -12 -12 -11 -11 -10 -10 -9 -9 -9
-7 -8 -8 -9 -9 -9 -9 -9 -9 -9 -9 -9 -10 -10 -10 -11 -11 -11 -12 -12 -13 -14 -15 -15 -16 -16 -16 -16 -16 -16 -17 -17 -16 -16 -15 -14 -13 -12 -11 -11 -10 -9 -9
-8 -9 -9 -9 -9 -10 -10 -10 -10 -10 -10 -10 -10 -11 -11 -11 -12 -12 -13 -14 -14 -15 -16 -16 -16 -17 -17 -17 -17 -17 -17 -17 -17 -17 -16 -15 -14 -13 -12 -12 -11 -11 -10
-9 -9 -9 -10 -10 -10 -10 -10 -10 -10 -10 -11 -11 -11 -12 -12 -13 -13 -14 -15 -16 -16 -17 -17 -17 -18 -18 -18 -18 -18 -18 -18 -18 -18 -17 -16 -16 -15 -14 -13 -12 -11 -10
-9 -10 -10 -10 -10 -10 -10 -10 -10 -11 -11 -11 -12 -12 -12 -13 -13 -15 -16 -16 -17 -17 -18 -18 -19 -19 -19 -19 -19 -19 -20 -20 -19 -19 -18 -17 -17 -16 -15 -14 -13 -12 -11

GFSMW_700_temp_171.txt.gz
Temp
6 5 5 5 4 4 3 3 2 2 2 1 0 0 0 0 0 1 1 1 1 1 1 0 0 0 -0 0 0 0 0 -0 -0 0 1 1 2 2 3 3 3 3 2
6 5 5 4 4 3 3 2 2 1 0 -0 -0 -0 -0 0 0 0 0 0 0 -0 -0 -0 -0 -1 -1 -1 -1 -1 -1 -1 -1 -1 0 1 2 1 1 2 2 2 3
5 5 5 4 3 2 2 1 1 -0 -1 -1 -1 -1 -1 -1 -1 -1 -1 -1 -1 -1 -1 -1 -1 -1 -1 -2 -2 -2 -2 -1 -2 -2 -2 -1 -0 1 1 0 -0 1 2
5 5 4 3 3 2 1 0 -0 -1 -1 -1 -1 -1 -1 -1 -2 -2 -2 -2 -2 -2 -2 -2 -2 -2 -2 -2 -2 -2 -2 -2 -2 -2 -2 -2 -2 -2 0 1 1 -1 -1
4 4 4 3 2 1 0 -0 -1 -1 -2 -2 -2 -2 -2 -2 -3 -3 -3 -3 -3 -3 -2 -2 -3 -3 -3 -3 -3 -2 -3 -3 -2 -2 -3 -3 -3 -3 -3 -1 -0 -0 -0
3 3 3 3 1 0 -0 -1 -2 -2 -2 -2 -2 -3 -3 -3 -3 -3 -3 -3 -3 -3 -3 -3 -3 -3 -3 -3 -3 -3 -3 -3 -4 -4 -4 -4 -4 -4 -4 -3 -3 -2 -1
4 3 3 2 1 0 -1 -2 -2 -2 -2 -2 -3 -3 -3 -3 -4 -4 -4 -4 -4 -4 -4 -4 -4 -4 -4 -4 -4 -4 -4 -4 -4 -5 -5 -5 -5 -6 -6 -5 -4 -3 -2
3 3 2 2 1 -0 -1 -2 -2 -3 -3 -3 -3 -3 -4 -4 -4 -4 -5 -5 -4 -4 -4 -4 -4 -4 -4 -4 -4 -4 -4 -4 -5 -6 -5 -5 -6 -6 -6 -6 -6 -4 -4
3 3 2 1 1 -1 -2 -2 -3 -3 -3 -3 -4 -4 -4 -4 -5 -5 -5 -5 -5 -5 -5 -5 -5 -5 -5 -5 -5 -5 -5 -5 -6 -6 -6 -6 -6 -6 -7 -7 -7 -7 -5
2 2 1 1 0 -1 -2 -3 -3 -3 -3 -4 -4 -4 -4 -5 -5 -5 -5 -5 -5 -5 -6 -6 -6 -5 -5 -5 -5 -5 -5 -5 -6 -7 -7 -7 -7 -6 -7 -7 -7 -7 -6
2 1 0 0 -0 -1 -2 -3 -3 -4 -4 -4 -4 -4 -4 -5 -6 -6 -6 -6 -6 -6 -6 -6 -6 -6 -6 -6 -6 -6 -6 -6 -6 -7 -7 -7 -7 -7 -7 -7 -7 -7 -7
1 0 0 -0 -1 -2 -2 -3 -4 -4 -5 -5 -5 -5 -5 -6 -6 -6 -6 -6 -6 -6 -6 -6 -6 -7 -7 -7 -7 -7 -7 -7 -7 -7 -7 -8 -8 -8 -7 -7 -8 -7 -7
0 -0 -0 -1 -1 -2 -3 -4 -4 -5 -5 -5 -5 -5 -6 -6 -6 -6 -7 -7 -7 -7 -7 -7 -7 -7 -7 -7 -7 -7 -7 -7 -8 -7 -8 -8 -8 -8 -8 -8 -8 -8 -7
-0 -1 -1 -1 -2 -3 -4 -5 -5 -5 -5 -5 -5 -6 -6 -7 -7 -7 -7 -7 -7 -7 -7 -7 -7 -8 -8 -7 -8 -8 -8 -8 -8 -8 -8 -8 -8 -9 -9 -8 -8 -8 -8
-1 -1 -1 -1 -2 -3 -4 -5 -6 -6 -6 -6 -6 -6 -7 -7 -7 -7 -7 -7 -7 -8 -8 -8 -8 -8 -8 -8 -8 -8 -8 -8 -8 -8 -8 -8 -9 -9 -9 -9 -9 -9 -8
-2 -2 -2 -2 -3 -4 -5 -6 -6 -6 -6 -6 -7 -7 -7 -7 -8 -8 -8 -8 -8 -8 -8 -8 -8 -8 -8 -8 -8 -8 -8 -9 -9 -9 -9 -9 -9 -9 -9 -9 -9 -10 -9
-2 -2 -3 -3 -3 -4 -6 -6 -6 -6 -7 -7 -7 -7 -8 -8 -8 -8 -8 -8 -8 -8 -9 -9 -9 -9 -9 -9 -9 -9 -9 -9 -10 -10 -10 -10 -10 -9 -9 -9 -9 -10 -10
-2 -3 -3 -3 -4 -5 -6 -7 -7 -7 -7 -7 -8 -8 -8 -8 -8 -8 -8 -9 -9 -9 -9 -9 -10 -10 -10 -10 -11 -11 -11 -11 -12 -12 -12 -11 -11 -10 -10 -9 -9 -10 -10
-3 -3 -3 -4 -5 -6 -7 -7 -7 -7 -7 -8 -8 -8 -8 -8 -8 -9 -9 -9 -9 -9 -9 -10 -10 -11 -11 -11 -12 -12 -13 -13 -13 -13 -13 -13 -13 -12 -11 -11 -10 -10 -10
-3 -3 -4 -5 -6 -7 -7 -7 -7 -8 -8 -8 -8 -8 -8 -8 -9 -9 -9 -9 -9 -10 -10 -11 -12 -12 -13 -14 -14 -14 -14 -14 -14 -14 -15 -14 -14 -13 -13 -12 -11 -10 -9
-3 -4 -6 -7 -7 -7 -7 -7 -8 -8 -8 -9 -9 -9 -9 -9 -9 -9 -9 -10 -10 -10 -11 -12 -13 -14 -14 -15 -15 -15 -15 -16 -16 -16 -16 -16 -15 -15 -14 -14 -12 -11 -10
-4 -6 -7 -7 -7 -7 -7 -8 -8 -9 -9 -9 -9 -9 -9 -9 -10 -10 -10 -10 -10 -11 -12 -12 -13 -15 -15 -16 -16 -16 -16 -17 -17 -17 -17 -17 -16 -16 -15 -15 -13 -13 -12
-6 -7 -7 -7 -7 -8 -8 -9 -9 -9 -9 -9 -9 -9 -10 -10 -10 -10 -10 -11 -11 -12 -12 -13 -14 -15 -16 -16 -17 -17 -17 -17 -18 -18 -18 -18 -18 -17 -16 -15 -15 -14 -13
-7 -7 -7 -7 -8 -9 -9 -9 -9 -9 -9 -9 -10 -10 -10 -10 -10 -11 -11 -11 -12 -12 -13 -14 -15 -16 -17 -17 -17 -17 -18 -18 -18 -19 -19 -19 -18 -18 -17 -16 -16 -15 -14
-7 -7 -8 -8 -9 -9 -9 -9 -9 -9 -10 -10 -10 -10 -11 -11 -11 -11 -12 -12 -13 -13 -14 -15 -16 -17 -17 -18 -18 -19 -19 -19 -19 -19 -20 -19 -19 -18 -18 -17 -16 -15 -14
-8 -8 -9 -9 -9 -9 -10 -10 -10 -10 -10 -10 -11 -11 -11 -11 -12 -12 -13 -13 -13 -14 -16 -17 -17 -18 -19 -19 -19 -19 -20 -20 -20 -20 -20 -20 -20 -19 -19 -18 -17 -16 -15

GFSMW_700_temp_177.txt.gz
Temp
8 8 8 8 7 6 6 5 5 5 4 4 4 4 3 3 3 3 2 2 2 1 1 1 1 1 1 0 -0 -0 -0 -0 -0 0 0 -0 -0 0 0 0 0 0 0
8 8 8 7 6 6 5 5 5 4 4 4 3 3 3 2 1 1 1 1 1 1 1 1 0 -0 -1 -1 -1 -1 -1 -1 -1 -1 -1 0 1 0 -0 -0 -0 -0 0
7 8 7 7 7 6 5 5 4 4 4 3 3 2 2 1 0 0 0 0 0 0 -1 -1 -2 -2 -2 -2 -2 -2 -2 -2 -2 -2 -2 -1 -0 1 1 0 -0 -0 -0
8 8 7 7 6 5 5 5 4 3 3 2 2 1 1 -0 -1 -1 -1 -1 -1 -1 -2 -2 -2 -2 -2 -2 -3 -3 -3 -3 -3 -3 -3 -3 -3 -2 0 1 -0 -0 -0
8 8 8 7 6 5 5 4 3 3 2 1 1 0 -0 -1 -1 -1 -2 -2 -2 -2 -3 -3 -3 -3 -3 -3 -3 -4 -4 -4 -4 -3 -4 -4 -4 -4 -3 -1 -1 -1 -1
8 7 7 7 6 5 4 4 3 3 2 1 0 -0 -1 -2 -2 -2 -2 -3 -3 -3 -3 -3 -4 -4 -4 -4 -4 -4 -4 -4 -4 -4 -4 -4 -4 -4 -4 -3 -2 -1 -1
8 8 7 7 7 5 4 3 3 2 1 0 -1 -1 -2 -2 -2 -3 -3 -3 -3 -3 -4 -4 -4 -5 -5 -5 -5 -5 -5 -5 -5 -5 -5 -5 -5 -5 -5 -5 -4 -3 -2
7 7 7 7 7 5 4 3 3 2 1 -0 -1 -2 -2 -3 -3 -3 -3 -3 -4 -4 -4 -5 -5 -5 -5 -5 -5 -5 -6 -6 -6 -6 -6 -6 -6 -6 -6 -6 -5 -4 -3
7 7 6 6 5 4 3 3 3 1 0 -1 -2 -3 -3 -3 -3 -3 -4 -4 -4 -4 -5 -5 -5 -6 -6 -6 -6 -6 -6 -6 -6 -6 -6 -6 -7 -6 -6 -6 -6 -6 -5
6 5 5 5 4 4 3 2 2 1 -0 -2 -2 -3 -3 -3 -4 -4 -4 -4 -4 -5 -5 -6 -6 -6 -6 -6 -6 -6 -6 -7 -7 -7 -7 -7 -7 -7 -7 -7 -7 -7 -7
5 5 4 3 3 3 3 2 1 1 -0 -2 -3 -3 -4 -4 -4 -4 -5 -5 -5 -5 -6 -6 -6 -6 -6 -6 -6 -7 -7 -7 -7 -7 -7 -7 -7 -7 -7 -7 -7 -7 -7
4 3 3 2 3 2 2 1 1 0 -1 -2 -3 -4 -4 -4 -5 -5 -5 -5 -5 -6 -7 -7 -7 -7 -7 -7 -7 -7 -7 -7 -7 -7 -7 -7 -7 -7 -8 -8 -8 -8 -8
3 3 3 2 2 1 1 1 0 -0 -1 -3 -4 -5 -5 -5 -5 -5 -5 -6 -6 -7 -7 -7 -7 -7 -7 -7 -7 -7 -7 -7 -7 -7 -7 -7 -7 -7 -7 -8 -8 -9 -8
2 2 2 1 1 1 0 -0 -1 -1 -2 -4 -5 -5 -6 -6 -6 -6 -6 -6 -7 -7 -7 -7 -7 -7 -7 -7 -7 -8 -8 -7 -7 -7 -8 -8 -8 -8 -8 -8 -9 -10 -10
1 1 0 0 -0 -0 -0 -1 -1 -2 -3 -4 -5 -6 -6 -6 -6 -6 -7 -7 -7 -7 -7 -7 -8 -8 -7 -7 -8 -8 -8 -8 -8 -8 -8 -9 -9 -10 -11 -11 -11 -11 -11
0 -0 -1 -1 -1 -1 -1 -1 -2 -4 -5 -5 -6 -6 -7 -7 -7 -7 -7 -8 -8 -8 -8 -8 -8 -8 -8 -8 -8 -8 -8 -9 -9 -9 -9 -10 -11 -11 -12 -13 -13 -13 -13
-1 -1 -1 -2 -2 -2 -2 -3 -4 -4 -5 -6 -7 -7 -7 -7 -7 -7 -8 -8 -8 -8 -8 -8 -9 -8 -8 -8 -9 -9 -9 -9 -10 -10 -11 -11 -12 -12 -13 -13 -14 -14 -15
-1 -2 -2 -3 -3 -3 -3 -4 -5 -5 -6 -7 -7 -7 -7 -7 -8 -8 -8 -8 -8 -8 -9 -9 -9 -9 -9 -9 -9 -9 -10 -10 -11 -12 -12 -12 -13 -14 -14 -15 -15 -15 -15
-2 -2 -1 -2 -3 -4 -4 -4 -5 -6 -6 -7 -7 -7 -7 -8 -8 -8 -8 -8 -9 -9 -9 -10 -10 -10 -10 -10 -10 -10 -11 -11 -12 -13 -14 -14 -15 -15 -16 -16 -16 -16 -16
-2 -3 -3 -3 -4 -4 -4 -5 -5 -6 -7 -7 -8 -7 -8 -8 -9 -9 -9 -9 -9 -10 -10 -10 -10 -10 -11 -11 -11 -11 -11 -12 -13 -14 -15 -16 -16 -17 -17 -17 -18 -18 -17
-2 -3 -4 -4 -4 -3 -4 -5 -6 -7 -7 -8 -8 -8 -9 -9 -9 -9 -9 -10 -10 -10 -10 -11 -11 -11 -11 -12 -12 -12 -13 -13 -14 -15 -16 -16 -17 -18 -18 -19 -19 -19 -19
-2 -3 -3 -4 -4 -5 -5 -6 -6 -7 -8 -8 -8 -9 -9 -9 -9 -9 -10 -10 -10 -11 -11 -11 -12 -12 -12 -12 -13 -13 -14 -15 -16 -16 -17 -17 -18 -19 -19 -19 -20 -20 -20
-3 -4 -4 -5 -6 -6 -6 -6 -7 -8 -8 -9 -9 -9 -9 -9 -9 -10 -10 -11 -11 -11 -12 -12 -12 -12 -12 -13 -13 -14 -15 -16 -17 -18 -18 -18 -19 -20 -20 -20 -20 -21 -20
-4 -5 -6 -6 -6 -6 -7 -7 -8 -8 -9 -9 -9 -9 -9 -10 -10 -10 -11 -11 -12 -12 -12 -12 -12 -13 -13 -13 -14 -14 -15 -16 -17 -18 -19 -19 -20 -20 -20 -21 -21 -21 -21
-6 -6 -6 -6 -7 -7 -7 -8 -8 -9 -9 -10 -10 -10 -10 -10 -11 -11 -12 -12 -12 -12 -12 -13 -13 -13 -13 -13 -14 -15 -16 -17 -18 -19 -19 -20 -20 -20 -20 -21 -21 -21 -21
-7 -7 -7 -7 -7 -7 -8 -9 -9 -10 -10 -10 -10 -10 -10 -11 -11 -12 -12 -12 -12 -13 -13 -13 -13 -14 -14 -14 -15 -16 -17 -18 -19 -19 -20 -20 -21 -21 -21 -21 -21 -21 -21

GFSMW_700_temp_180.txt.gz
Temp
8 8 8 8 7 7 6 6 5 5 4 4 4 4 4 3 3 3 3 3 2 2 2 2 2 2 1 1 1 1 1 1 1 1 1 -0 -1 -0 -0 -0 -1 -1 -1
9 9 9 8 8 7 6 6 5 5 4 4 4 4 3 3 3 3 2 2 1 1 1 1 1 1 1 0 -0 -0 -1 -1 -0 -0 0 1 -0 -1 -1 -1 -1 -1 -1
9 9 8 8 7 6 6 5 5 4 4 4 3 3 3 3 2 2 1 1 1 0 0 0 -0 -0 -1 -1 -1 -1 -1 -2 -2 -2 -2 -1 -0 -0 -1 -1 -1 -1 -1
9 8 8 8 7 6 6 5 5 4 4 3 3 2 2 2 1 1 0 0 -0 -0 -1 -1 -2 -2 -2 -2 -2 -3 -3 -3 -3 -3 -4 -3 -3 -2 -0 -1 -2 -2 -2
9 9 9 8 6 6 6 5 5 4 3 3 2 2 1 1 0 -1 -1 -1 -1 -1 -2 -2 -2 -2 -3 -3 -3 -4 -4 -4 -4 -4 -4 -4 -4 -4 -4 -1 -2 -3 -3
9 9 8 7 6 6 6 5 4 4 3 2 2 1 0 -0 -1 -1 -2 -2 -2 -2 -3 -3 -3 -3 -4 -4 -4 -5 -5 -5 -5 -5 -5 -5 -5 -4 -5 -4 -4 -3 -4
8 8 8 8 8 7 7 5 3 3 2 2 1 0 -1 -1 -2 -2 -2 -3 -3 -3 -3 -3 -4 -4 -4 -5 -5 -5 -5 -5 -5 -5 -5 -5 -5 -5 -5 -5 -5 -4 -4
9 8 7 7 7 6 5 5 3 2 2 1 1 -0 -1 -2 -2 -3 -3 -3 -3 -3 -4 -4 -4 -4 -5 -6 -6 -6 -6 -6 -6 -6 -6 -6 -6 -6 -6 -6 -5 -4 -4
9 8 7 7 7 6 5 4 3 2 2 1 -0 -1 -1 -2 -3 -3 -3 -4 -4 -4 -4 -4 -5 -5 -6 -6 -6 -6 -6 -6 -6 -6 -7 -6 -7 -7 -7 -7 -7 -6 -5
8 7 7 6 5 4 3 3 3 2 1 1 -0 -1 -2 -2 -3 -4 -4 -4 -4 -4 -5 -5 -5 -6 -6 -6 -7 -6 -7 -7 -7 -7 -7 -7 -7 -7 -7 -7 -7 -7 -6
7 7 7 6 5 3 3 3 2 1 1 -0 -1 -2 -2 -3 -4 -4 -4 -4 -4 -5 -5 -5 -6 -6 -7 -7 -7 -7 -7 -7 -7 -7 -7 -7 -7 -7 -7 -7 -7 -7 -7
5 6 5 5 4 4 4 3 2 1 0 -1 -2 -2 -3 -4 -4 -4 -5 -5 -5 -5 -5 -6 -6 -7 -7 -7 -7 -8 -7 -7 -7 -7 -7 -7 -7 -7 -7 -7 -7 -7 -7
4 4 4 4 3 3 2 1 1 1 -0 -1 -1 -3 -3 -4 -5 -5 -5 -5 -6 -6 -6 -7 -7 -7 -7 -7 -7 -8 -8 -7 -8 -8 -8 -8 -8 -8 -8 -8 -8 -8 -8
2 2 3 3 3 2 1 1 1 0 -1 -2 -3 -3 -3 -5 -5 -5 -5 -6 -6 -6 -7 -7 -7 -7 -8 -8 -8 -8 -8 -8 -8 -8 -8 -8 -8 -8 -8 -9 -9 -9 -9
1 1 2 2 2 2 1 1 0 -1 -3 -3 -4 -4 -6 -6 -6 -6 -6 -6 -7 -7 -7 -8 -7 -8 -8 -8 -8 -8 -8 -8 -8 -9 -9 -9 -9 -9 -9 -10 -10 -11 -11
0 0 1 1 1 1 0 -0 -1 -3 -4 -4 -4 -5 -6 -6 -6 -7 -7 -7 -7 -8 -8 -8 -8 -8 -8 -8 -8 -9 -9 -9 -9 -9 -9 -10 -10 -10 -11 -11 -12 -13 -13
0 0 0 0 0 0 -1 -1 -2 -4 -4 -4 -5 -5 -6 -7 -7 -7 -7 -8 -8 -8 -8 -8 -9 -9 -9 -9 -9 -9 -9 -10 -10 -10 -10 -10 -11 -12 -12 -12 -13 -14 -15
-1 -1 -1 -0 -0 -1 -2 -2 -3 -4 -4 -4 -5 -6 -7 -7 -7 -8 -8 -8 -8 -9 -9 -9 -9 -9 -9 -9 -9 -10 -10 -10 -11 -11 -11 -12 -12 -13 -13 -13 -14 -15 -16
-0 -1 -2 -1 -1 -2 -2 -3 -4 -4 -4 -5 -6 -6 -7 -7 -8 -8 -8 -9 -9 -9 -9 -10 -10 -10 -10 -10 -10 -10 -11 -11 -12 -12 -13 -13 -13 -14 -14 -15 -15 -16 -16
-1 -0 -1 -1 -2 -3 -3 -3 -4 -5 -4 -5 -7 -7 -7 -8 -8 -8 -9 -9 -9 -10 -10 -10 -10 -11 -11 -11 -11 -11 -11 -11 -12 -13 -13 -14 -15 -15 -16 -16 -17 -17 -17
-1 -1 -1 -2 -2 -3 -3 -4 -5 -5 -5 -7 -7 -7 -8 -8 -9 -9 -9 -9 -10 -10 -11 -11 -11 -11 -12 -12 -12 -12 -12 -12 -13 -13 -14 -15 -16 -16 -17 -18 -18 -18 -19
-1 -2 -2 -2 -3 -4 -5 -5 -5 -5 -7 -7 -7 -8 -8 -9 -9 -9 -9 -10 -10 -11 -11 -11 -12 -12 -12 -12 -12 -13 -13 -13 -14 -14 -15 -16 -16 -17 -18 -19 -19 -19 -20
-2 -2 -3 -4 -4 -5 -5 -5 -5 -7 -7 -8 -9 -9 -9 -9 -9 -10 -10 -10 -11 -11 -12 -12 -12 -13 -13 -13 -13 -13 -14 -14 -15 -15 -16 -17 -17 -18 -19 -20 -20 -20 -20
-4 -4 -4 -5 -5 -5 -5 -6 -6 -7 -8 -9 -9 -9 -10 -10 -10 -10 -11 -11 -12 -12 -12 -13 -13 -13 -13 -13 -14 -14 -14 -14 -15 -16 -17 -18 -18 -19 -20 -20 -20 -21 -21
-4 -5 -6 -6 -6 -7 -7 -7 -7 -8 -9 -9 -10 -10 -10 -10 -10 -11 -11 -12 -12 -13 -13 -13 -13 -14 -14 -14 -14 -14 -14 -15 -15 -16 -18 -18 -19 -19 -20 -20 -21 -21 -21
-6 -6 -7 -7 -7 -7 -8 -8 -9 -9 -10 -10 -10 -10 -10 -10 -11 -11 -12 -13 -13 -13 -14 -14 -14 -14 -14 -14 -15 -15 -15 -16 -16 -17 -18 -19 -19 -20 -20 -21 -21 -21 -21

GFSMW_700_temp_183.txt.gz
Temp
9 9 9 8 8 8 7 7 6 6 6 5 4 4 4 3 3 3 3 3 3 2 2 2 2 2 2 2 2 2 2 1 1 1 -0 -0 -1 -1 -1 -1 -1 -1 -1
9 9 9 9 9 8 7 7 6 6 5 5 4 4 3 3 3 3 3 2 2 2 2 2 1 1 1 1 1 1 1 0 1 0 1 -0 -1 -2 -2 -2 -2 -2 -2
9 9 9 9 9 8 7 6 6 5 5 4 4 4 3 3 3 2 2 2 1 1 1 0 0 0 0 0 -0 -0 -1 -1 -1 -1 -1 -1 -1 -0 -2 -3 -3 -3 -3
8 9 9 9 8 8 7 6 5 4 4 4 3 3 3 2 2 2 1 1 0 -0 -0 -1 -1 -1 -1 -1 -1 -1 -1 -2 -2 -3 -3 -3 -3 -2 -1 -2 -4 -4 -4
9 9 9 9 8 7 6 6 4 4 3 3 3 2 2 2 1 1 0 -0 -1 -1 -1 -1 -2 -2 -2 -2 -2 -2 -3 -3 -3 -4 -4 -5 -5 -5 -4 -4 -4 -4 -4
9 9 8 9 8 6 6 6 5 4 3 3 2 2 1 1 0 0 -0 -1 -1 -2 -2 -2 -2 -2 -3 -3 -3 -3 -4 -4 -4 -5 -5 -5 -5 -5 -5 -5 -5 -4 -4
8 8 9 9 8 7 6 6 5 4 3 2 2 1 1 0 -0 -1 -1 -1 -2 -2 -3 -3 -3 -3 -3 -3 -4 -4 -5 -5 -5 -5 -5 -5 -5 -5 -5 -5 -5 -5 -4
8 8 8 8 9 7 6 5 5 3 2 2 2 1 -0 -1 -1 -1 -2 -2 -2 -3 -3 -3 -4 -4 -4 -4 -4 -5 -6 -6 -6 -6 -6 -6 -6 -6 -6 -6 -6 -5 -5
8 8 8 8 8 7 6 5 4 3 2 1 1 0 -1 -1 -1 -2 -2 -2 -3 -3 -4 -4 -4 -4 -4 -5 -5 -6 -6 -6 -6 -6 -6 -6 -6 -6 -6 -6 -6 -6 -5
8 8 8 8 7 6 5 4 3 2 2 2 1 0 -1 -2 -2 -2 -3 -3 -4 -4 -4 -4 -4 -5 -5 -5 -6 -6 -6 -6 -6 -6 -7 -7 -7 -7 -7 -7 -7 -7 -6
6 7 7 7 6 6 4 4 3 3 3 1 0 0 -1 -2 -2 -3 -3 -4 -4 -4 -4 -5 -5 -5 -6 -6 -7 -7 -7 -7 -7 -7 -7 -7 -7 -7 -7 -7 -7 -7 -7
5 6 6 6 6 5 4 4 4 3 1 -1 0 -0 -1 -2 -3 -3 -4 -4 -5 -5 -5 -5 -5 -6 -7 -7 -7 -7 -7 -7 -7 -7 -7 -7 -7 -7 -7 -7 -7 -7 -7
3 4 5 5 4 4 4 3 3 2 0 -1 -0 -1 -2 -3 -4 -4 -5 -5 -5 -5 -5 -5 -6 -7 -7 -7 -7 -8 -8 -8 -8 -8 -8 -8 -8 -8 -8 -8 -8 -8 -8
2 3 3 4 4 3 3 3 3 2 -1 -1 -1 -2 -3 -4 -4 -5 -5 -6 -6 -6 -6 -6 -7 -7 -7 -7 -8 -8 -8 -8 -8 -8 -8 -8 -8 -8 -8 -8 -8 -9 -9
0 1 2 2 2 2 2 2 2 1 -0 -1 -2 -3 -4 -5 -5 -5 -6 -6 -6 -6 -6 -7 -7 -8 -8 -8 -8 -8 -8 -9 -9 -9 -9 -9 -9 -9 -9 -9 -10 -10 -10
-1 0 1 1 1 2 1 1 1 1 -0 -1 -2 -4 -4 -5 -5 -5 -6 -7 -7 -7 -7 -7 -8 -8 -8 -8 -9 -9 -9 -9 -9 -9 -9 -10 -10 -10 -10 -11 -11 -12 -13
-1 -0 -0 1 1 1 1 1 1 0 -0 -1 -3 -4 -4 -5 -5 -6 -7 -7 -8 -7 -8 -8 -8 -8 -8 -9 -9 -9 -10 -10 -10 -10 -10 -10 -11 -11 -11 -12 -12 -13 -14
-2 -1 -0 0 -0 -0 -0 -0 -0 -0 -1 -3 -4 -4 -5 -6 -6 -8 -8 -8 -8 -8 -8 -8 -9 -9 -9 -10 -9 -10 -10 -11 -11 -11 -11 -11 -11 -12 -12 -12 -13 -14 -15
-2 -1 -1 -1 -1 -2 -2 -1 -1 -3 -3 -3 -3 -5 -6 -7 -7 -8 -8 -8 -8 -8 -9 -9 -9 -9 -10 -10 -10 -11 -11 -11 -12 -12 -12 -12 -12 -13 -13 -13 -14 -14 -15
-2 -1 -1 -1 -1 -1 -1 -2 -2 -3 -3 -4 -6 -6 -7 -7 -8 -9 -9 -9 -9 -9 -9 -9 -10 -10 -10 -11 -11 -11 -12 -12 -12 -12 -12 -13 -13 -14 -14 -15 -15 -15 -15
-2 -1 -1 -1 -1 -2 -3 -3 -3 -4 -4 -6 -6 -7 -7 -8 -9 -9 -9 -9 -9 -9 -9 -10 -10 -11 -11 -11 -12 -12 -12 -12 -13 -13 -13 -13 -14 -14 -15 -16 -16 -16 -17
-3 -2 -1 -1 -2 -2 -3 -3 -4 -5 -6 -6 -7 -7 -8 -9 -9 -9 -9 -10 -10 -10 -10 -10 -11 -11 -12 -12 -13 -13 -13 -13 -13 -13 -14 -14 -14 -15 -16 -16 -17 -18 -18
-2 -2 -2 -2 -3 -3 -3 -4 -5 -6 -6 -7 -7 -8 -10 -9 -9 -10 -10 -10 -10 -10 -10 -11 -12 -12 -12 -13 -13 -13 -14 -14 -14 -14 -14 -15 -15 -16 -17 -18 -18 -19 -20
-3 -3 -3 -3 -4 -4 -4 -5 -5 -7 -7 -8 -8 -9 -9 -9 -10 -10 -10 -10 -10 -11 -11 -12 -12 -13 -13 -14 -14 -14 -14 -15 -14 -15 -15 -16 -16 -17 -17 -18 -19 -20 -20
-5 -4 -5 -4 -5 -5 -5 -6 -7 -7 -8 -9 -9 -9 -9 -10 -10 -10 -10 -11 -11 -11 -12 -13 -13 -14 -14 -14 -15 -15 -15 -15 -15 -15 -16 -16 -17 -17 -18 -19 -19 -20 -21
-5 -5 -5 -6 -6 -7 -7 -7 -8 -8 -9 -9 -9 -9 -10 -10 -11 -11 -11 -11 -12 -12 -13 -14 -14 -14 -15 -15 -15 -15 -15 -16 -16 -16 -17 -17 -17 -18 -18 -19 -19 -20 -21

GFSMW_700_temp_189.txt.gz
Temp
9 9 9 9 8 8 8 8 8 7 7 7 6 6 5 5 4 4 4 3 3 3 3 3 3 2 2 2 2 2 2 2 2 1 1 1 0 -0 -1 -1 -1 -1 -1
8 8 9 8 8 8 8 8 7 7 7 6 6 5 4 4 3 3 3 3 3 2 2 2 2 1 1 1 1 1 1 1 1 1 0 0 -1 -1 -2 -2 -3 -2 -2
7 8 8 8 8 8 8 8 7 7 6 6 5 5 5 4 4 3 3 2 2 2 1 1 1 1 1 1 0 1 1 -0 0 0 -0 -1 -1 -2 -3 -3 -3 -3 -4
8 8 8 8 8 9 8 7 7 7 6 6 5 5 4 3 2 2 2 2 1 1 1 0 0 0 0 -0 -0 -0 -0 -1 -1 -1 -1 -1 -2 -3 -4 -4 -5 -5 -5
7 8 8 8 8 7 6 6 8 6 6 6 5 5 4 3 2 2 1 1 1 0 0 -0 -0 -0 -1 -1 -1 -1 -2 -2 -1 -2 -2 -2 -2 -2 -3 -5 -5 -5 -5
7 7 7 7 8 7 7 6 6 6 5 5 5 4 3 3 2 1 1 1 0 -0 -0 -1 -1 -1 -1 -1 -2 -2 -2 -2 -2 -2 -2 -2 -3 -3 -4 -4 -5 -5 -5
6 6 7 7 7 7 7 7 6 5 5 4 4 4 3 2 1 1 0 0 -0 -1 -1 -1 -1 -2 -2 -2 -2 -3 -2 -3 -3 -3 -3 -3 -4 -4 -5 -5 -5 -5 -6
7 7 7 7 7 7 7 6 6 6 5 4 4 3 3 2 2 1 0 -0 -1 -1 -1 -1 -2 -2 -3 -3 -3 -3 -3 -3 -3 -3 -4 -4 -4 -5 -5 -5 -5 -6 -6
6 6 6 6 6 6 6 5 5 5 4 3 2 3 2 2 1 0 -0 -1 -1 -1 -2 -2 -2 -3 -3 -3 -4 -4 -4 -4 -4 -4 -5 -5 -6 -6 -6 -6 -6 -6 -6
4 5 6 6 6 6 6 5 4 3 2 2 1 2 1 1 0 0 -0 -1 -2 -1 -1 -3 -3 -3 -3 -4 -4 -4 -5 -5 -5 -5 -6 -6 -6 -6 -7 -7 -7 -7 -7
3 3 4 5 5 5 5 5 4 3 1 1 0 1 1 0 -1 -2 -2 -3 -3 -2 -3 -3 -4 -4 -4 -4 -5 -5 -5 -5 -6 -6 -7 -6 -7 -7 -7 -7 -7 -8 -8
2 2 2 3 4 3 4 4 4 3 1 -0 -0 -0 -0 -2 -1 -2 -3 -3 -3 -3 -4 -4 -4 -4 -4 -5 -6 -5 -5 -6 -6 -7 -7 -7 -8 -8 -8 -8 -8 -8 -8
0 1 1 1 1 1 1 1 2 2 1 -1 -1 -1 -1 -1 -2 -3 -2 -5 -4 -4 -4 -5 -5 -5 -6 -6 -6 -6 -6 -6 -7 -7 -8 -8 -8 -8 -9 -9 -9 -9 -9
0 0 1 1 1 1 1 1 1 1 0 -1 -2 -2 -3 -2 -2 -3 -5 -7 -6 -5 -5 -5 -6 -6 -7 -7 -7 -7 -7 -7 -7 -8 -8 -9 -9 -9 -9 -9 -10 -10 -10
-1 -0 1 1 2 1 1 1 1 0 0 -1 -2 -3 -3 -3 -3 -4 -6 -7 -6 -6 -6 -6 -6 -7 -8 -8 -8 -7 -7 -8 -8 -8 -9 -9 -9 -10 -10 -10 -10 -11 -11
-2 -2 -1 -0 0 1 1 0 -1 -0 -1 -1 -2 -4 -4 -4 -3 -4 -5 -9 -7 -7 -7 -7 -7 -8 -8 -10 -9 -8 -8 -9 -9 -9 -10 -10 -10 -11 -11 -11 -11 -11 -11
-3 -2 -2 -2 -1 -2 -2 -1 -1 -0 -2 -2 -2 -4 -4 -4 -4 -4 -5 -7 -8 -9 -9 -7 -7 -8 -9 -10 -9 -9 -9 -9 -9 -10 -10 -11 -11 -12 -12 -12 -12 -12 -12
-4 -4 -3 -3 -3 -3 -3 -2 -2 -2 -2 -2 -2 -3 -3 -4 -5 -5 -5 -7 -10 -9 -8 -7 -8 -9 -10 -9 -9 -9 -9 -10 -10 -10 -11 -11 -12 -12 -12 -12 -13 -13 -13
-4 -4 -4 -3 -3 -3 -3 -3 -2 -2 -2 -2 -3 -3 -3 -4 -5 -5 -6 -8 -7 -7 -7 -8 -9 -10 -11 -9 -10 -10 -10 -11 -11 -11 -11 -12 -12 -13 -13 -13 -13 -13 -13
-5 -4 -4 -4 -3 -3 -3 -3 -3 -2 -3 -2 -3 -3 -4 -5 -6 -7 -7 -7 -8 -8 -8 -9 -9 -11 -10 -10 -10 -11 -11 -11 -11 -12 -12 -13 -13 -14 -14 -14 -14 -14 -14
-5 -5 -4 -4 -3 -4 -3 -4 -4 -4 -4 -4 -4 -4 -6 -7 -8 -7 -7 -8 -8 -8 -9 -9 -10 -10 -10 -10 -11 -11 -11 -12 -12 -13 -13 -13 -14 -14 -15 -15 -15 -15 -15
-5 -6 -6 -5 -4 -5 -5 -4 -4 -4 -4 -5 -5 -6 -7 -8 -8 -7 -8 -9 -9 -9 -10 -10 -10 -11 -11 -11 -11 -11 -12 -13 -13 -14 -14 -14 -15 -15 -15 -16 -16 -16 -16
-5 -5 -6 -6 -5 -5 -5 -5 -4 -4 -4 -4 -5 -7 -8 -8 -8 -8 -9 -9 -9 -10 -10 -11 -11 -11 -11 -11 -12 -13 -13 -14 -14 -14 -14 -15 -15 -16 -16 -16 -17 -17 -17
-5 -5 -5 -5 -5 -5 -5 -5 -5 -5 -5 -6 -7 -8 -9 -8 -9 -9 -9 -9 -11 -10 -11 -11 -11 -12 -12 -12 -13 -14 -14 -14 -15 -15 -16 -16 -17 -17 -17 -17 -18 -18 -18
-6 -6 -6 -6 -6 -5 -5 -5 -5 -6 -6 -6 -8 -9 -9 -9 -9 -9 -9 -10 -11 -11 -11 -11 -12 -12 -13 -13 -14 -14 -15 -15 -16 -16 -17 -17 -17 -17 -18 -18 -19 -19 -19
-7 -6 -6 -6 -6 -5 -6 -5 -6 -7 -7 -8 -9 -9 -9 -9 -9 -10 -10 -11 -11 -12 -12 -13 -13 -13 -13 -14 -14 -15 -16 -16 -16 -17 -17 -17 -18 -18 -18 -19 -19 -19 -19

GFSMW_700_temp_195.txt.gz
Temp
8 6 9 9 9 9 10 10 9 9 9 9 8 8 7 7 7 7 6 6 5 5 4 4 4 3 3 3 3 3 3 3 2 2 2 2 2 2 2 2 2 1 1
9 7 7 8 9 9 9 9 9 9 9 8 8 7 7 7 6 6 6 5 5 4 4 4 3 3 3 3 2 2 2 2 2 2 2 2 2 1 1 1 1 0 0
8 8 6 8 8 8 9 9 9 9 8 8 7 7 7 7 7 6 6 5 5 4 3 3 3 2 2 2 2 2 1 1 1 1 1 0 -0 0 0 -0 -0 -0 -0
8 8 7 6 8 8 8 8 8 8 8 7 7 7 7 7 6 6 5 5 4 4 3 2 2 2 2 1 1 1 1 1 1 0 -0 -0 -1 -1 -2 -0 -1 -1 -2
7 7 7 6 6 7 7 8 8 7 7 7 7 6 6 6 5 5 5 5 4 3 2 2 2 1 1 1 0 0 0 -0 -0 -0 -1 -1 -2 -2 -2 -3 -1 -2 -2
6 6 6 5 4 6 7 7 7 7 7 6 6 6 6 5 5 5 5 4 4 3 2 1 1 1 0 0 -0 -0 -1 -1 -1 -1 -2 -2 -2 -2 -3 -3 -3 -3 -3
5 5 5 5 3 5 6 6 6 6 7 7 6 5 5 5 4 4 4 3 3 2 1 1 0 0 -0 -1 -1 -1 -1 -2 -2 -2 -2 -2 -3 -3 -3 -3 -4 -4 -4
4 4 5 5 5 5 6 6 6 6 6 7 6 5 5 4 3 4 3 2 2 2 1 -0 -0 -1 -1 -1 -1 -2 -2 -3 -3 -3 -3 -3 -4 -4 -4 -4 -4 -5 -5
2 3 3 4 5 5 5 5 5 5 5 6 6 5 3 2 3 2 2 1 0 1 1 0 -1 -1 -2 -2 -2 -2 -3 -5 -4 -4 -4 -4 -4 -4 -4 -5 -5 -6 -6
-0 1 1 2 2 3 4 4 4 4 4 4 5 4 4 1 2 2 2 1 -0 -1 -1 -1 -1 -2 -2 -2 -3 -3 -5 -5 -5 -4 -5 -5 -5 -5 -5 -6 -6 -6 -7
-1 -1 -0 1 1 2 2 2 3 3 3 3 4 4 4 3 1 2 2 1 -0 -1 -2 -3 -3 -3 -4 -3 -4 -5 -6 -7 -5 -5 -5 -6 -6 -6 -6 -6 -7 -7 -7
-2 -2 -0 1 1 1 2 2 2 2 2 2 2 3 3 3 2 1 1 0 -1 -1 -2 -2 -2 -4 -4 -5 -6 -7 -7 -7 -6 -6 -6 -7 -7 -7 -7 -7 -7 -7 -8
-3 -2 -1 -1 1 2 2 2 2 2 2 2 2 2 2 2 2 1 0 -0 -1 -2 -3 -3 -3 -4 -5 -6 -6 -7 -8 -8 -7 -7 -7 -8 -8 -7 -7 -8 -8 -8 -8
-3 -3 -2 -1 0 0 2 2 2 2 2 2 2 2 2 1 1 1 0 -0 -1 -3 -3 -4 -4 -5 -5 -5 -6 -8 -8 -8 -7 -7 -7 -9 -9 -8 -8 -9 -9 -9 -9
-3 -3 -3 -3 -3 -3 -3 1 2 2 2 1 1 0 1 1 1 1 0 -1 -1 -3 -4 -4 -5 -6 -6 -6 -6 -9 -9 -9 -8 -7 -8 -10 -9 -9 -9 -9 -9 -9 -10
-3 -3 -3 -3 -3 -3 -1 -1 1 1 1 1 0 -0 -0 -0 0 0 -0 -3 -3 -3 -4 -5 -5 -6 -6 -6 -7 -8 -9 -10 -9 -8 -9 -9 -10 -10 -10 -9 -10 -10 -10
-4 -4 -4 -4 -4 -4 -3 -1 -3 -1 -1 -1 -2 -2 -2 -2 -1 -1 -0 -1 -3 -4 -5 -5 -5 -6 -6 -6 -7 -9 -10 -9 -9 -9 -9 -9 -11 -10 -10 -10 -11 -11 -11
-5 -5 -5 -5 -5 -5 -3 -3 -3 -4 -2 -2 -3 -3 -3 -2 -2 -2 -2 -2 -3 -4 -5 -6 -7 -6 -7 -8 -9 -9 -9 -9 -9 -9 -9 -10 -10 -10 -10 -11 -11 -11 -12
-6 -6 -6 -5 -6 -5 -5 -3 -3 -4 -3 -3 -3 -3 -3 -3 -3 -3 -3 -3 -3 -4 -6 -8 -8 -7 -8 -9 -9 -10 -10 -9 -10 -10 -10 -10 -10 -11 -11 -11 -12 -12 -12
-6 -6 -6 -6 -6 -6 -5 -4 -4 -4 -4 -4 -3 -4 -3 -4 -4 -4 -4 -4 -5 -8 -8 -8 -8 -8 -10 -10 -10 -10 -10 -10 -11 -11 -10 -11 -11 -12 -12 -12 -13 -13 -13
-7 -6 -6 -6 -6 -5 -5 -4 -4 -4 -4 -4 -4 -4 -4 -4 -5 -5 -6 -7 -8 -9 -9 -8 -9 -9 -10 -10 -11 -11 -10 -11 -11 -11 -11 -11 -12 -12 -13 -13 -13 -13 -14
-7 -7 -7 -7 -6 -6 -5 -5 -5 -5 -5 -5 -5 -4 -5 -6 -7 -8 -9 -9 -9 -9 -9 -9 -10 -10 -10 -11 -11 -10 -12 -11 -11 -11 -11 -11 -13 -13 -13 -13 -14 -14 -14
-7 -7 -7 -7 -6 -5 -5 -5 -5 -6 -6 -6 -5 -5 -6 -7 -7 -9 -9 -9 -10 -10 -10 -10 -10 -10 -11 -11 -11 -12 -12 -12 -11 -12 -12 -12 -13 -14 -14 -14 -15 -15 -15
-7 -7 -7 -7 -6 -5 -6 -5 -5 -6 -6 -6 -6 -6 -6 -7 -8 -8 -10 -10 -10 -10 -10 -10 -11 -11 -11 -11 -11 -12 -12 -12 -12 -12 -13 -13 -14 -14 -14 -15 -15 -16 -17
-8 -7 -7 -7 -6 -6 -6 -6 -6 -6 -6 -6 -6 -6 -7 -8 -9 -10 -10 -10 -10 -11 -11 -11 -11 -11 -11 -11 -12 -12 -12 -12 -13 -13 -14 -14 -14 -15 -16 -16 -16 -17 -17
-7 -7 -7 -7 -7 -7 -6 -6 -6 -6 -6 -7 -7 -8 -9 -10 -10 -10 -10 -10 -11 -11 -11 -11 -11 -11 -11 -12 -12 -12 -12 -13 -13 -14 -15 -15 -15 -16 -16 -17 -17 -18 -18

GFSMW_700_temp_198.txt.gz
Temp
10 10 9 8 8 8 9 10 9 10 9 9 9 9 9 8 8 8 7 7 6 6 6 6 5 5 4 4 4 4 3 3 3 3 3 3 3 3 3 2 3 2 2
10 10 9 8 8 8 7 9 9 9 9 9 8 8 8 8 7 7 7 6 6 6 6 5 4 4 4 4 3 3 3 3 2 2 2 2 2 2 2 2 2 1 2
9 9 9 9 8 8 7 8 9 9 9 9 8 8 8 7 7 7 7 6 6 5 5 5 4 4 4 3 3 2 2 2 2 2 1 1 1 2 1 1 1 1 1
9 9 9 9 9 8 8 7 8 8 8 8 8 7 7 7 7 7 6 6 5 5 5 4 4 3 3 3 2 2 2 2 1 1 1 0 0 0 0 1 0 0 0
9 9 9 6 7 8 7 7 7 7 7 7 7 7 7 6 6 6 5 5 5 4 4 4 4 3 3 2 2 1 1 1 1 0 -0 -0 -0 -1 -1 -1 -0 0 -1
8 8 8 7 6 6 6 6 6 6 6 7 6 6 6 6 6 6 5 5 5 4 4 4 3 3 2 2 1 1 1 0 0 -0 -1 -1 -1 -1 -1 -2 -2 -1 -1
7 8 8 7 5 4 4 4 4 5 5 6 6 5 6 6 5 5 5 5 5 4 3 3 2 2 2 1 1 1 0 -0 -1 -1 -1 -2 -2 -2 -2 -3 -3 -3 -3
4 6 6 6 5 4 3 3 4 5 5 5 5 4 4 5 4 4 5 4 4 4 2 2 1 1 1 0 0 -0 -1 -1 -1 -2 -2 -3 -3 -3 -3 -3 -3 -4 -4
-0 2 3 3 4 4 3 3 4 4 4 5 5 4 4 4 3 1 1 2 2 2 2 0 1 -1 -2 -0 -1 -1 -1 -2 -2 -2 -3 -4 -5 -4 -4 -4 -4 -5 -5
-1 -1 -1 1 1 2 2 2 2 2 3 4 4 4 3 3 3 1 1 2 2 2 2 0 0 -1 -4 -3 -3 -2 -2 -3 -3 -3 -4 -4 -6 -6 -6 -6 -5 -5 -5
-4 -2 -2 -2 0 0 1 1 1 1 2 2 3 3 3 2 3 3 2 1 1 2 2 1 0 -1 -1 -4 -5 -5 -5 -5 -5 -5 -5 -6 -6 -6 -6 -7 -7 -6 -6
-4 -3 -3 -2 -2 -0 0 1 1 1 1 1 2 3 3 3 3 3 3 3 2 1 1 0 -1 -1 -2 -2 -3 -5 -5 -6 -6 -6 -6 -6 -6 -6 -6 -6 -7 -6 -7
-2 -4 -1 -3 -3 -3 -2 -0 0 0 0 1 1 2 1 2 2 2 3 2 3 2 0 0 -1 -3 -3 -4 -5 -6 -5 -7 -7 -7 -6 -7 -8 -6 -6 -7 -9 -8 -7
-3 -4 -4 -4 -2 -3 -3 -3 -1 0 -1 -1 -0 -0 1 0 0 1 2 2 2 1 0 -1 -1 -3 -4 -5 -6 -7 -7 -6 -7 -7 -7 -7 -7 -7 -7 -10 -10 -10 -8
-3 -3 -3 -4 -4 -3 -3 -2 -1 -0 1 1 0 -0 -1 -1 -0 -0 -0 1 1 1 -2 -2 -3 -4 -5 -5 -6 -6 -7 -8 -7 -7 -7 -7 -8 -8 -7 -10 -10 -10 -10
-3 -4 -3 -3 -4 -4 -4 -4 -4 -4 -2 1 -0 -1 -1 -2 -2 -1 -1 -1 -1 -1 -2 -3 -3 -4 -5 -6 -6 -7 -7 -7 -7 -7 -8 -9 -8 -8 -8 -10 -11 -11 -9
-4 -4 -4 -4 -4 -4 -4 -4 -4 -5 -4 -4 -2 -2 -2 -2 -2 -2 -2 -2 -2 -2 -3 -4 -4 -5 -5 -6 -7 -7 -7 -7 -7 -8 -9 -9 -9 -9 -9 -10 -12 -10 -10
-5 -4 -5 -5 -5 -5 -5 -5 -5 -5 -4 -4 -4 -4 -4 -3 -3 -3 -3 -3 -3 -3 -3 -4 -5 -5 -6 -7 -8 -8 -8 -8 -9 -9 -9 -9 -9 -10 -10 -11 -10 -10 -10
-6 -6 -6 -5 -5 -5 -5 -5 -5 -4 -4 -4 -4 -4 -3 -3 -3 -4 -4 -4 -4 -4 -4 -4 -5 -7 -8 -8 -8 -8 -9 -9 -9 -10 -10 -10 -10 -11 -11 -11 -11 -11 -11
-7 -7 -7 -7 -6 -6 -6 -5 -4 -4 -4 -4 -4 -4 -5 -4 -4 -4 -4 -5 -5 -6 -6 -7 -8 -9 -9 -8 -9 -9 -10 -10 -10 -10 -10 -10 -10 -11 -11 -11 -11 -11 -12
-7 -7 -7 -6 -6 -6 -7 -5 -5 -4 -4 -5 -5 -5 -5 -5 -5 -5 -5 -6 -6 -8 -8 -8 -9 -9 -9 -10 -10 -10 -11 -10 -10 -11 -10 -12 -11 -11 -11 -12 -12 -12 -13
-7 -7 -7 -6 -7 -7 -6 -6 -5 -5 -5 -5 -5 -6 -6 -6 -6 -6 -7 -7 -8 -9 -9 -9 -10 -9 -10 -10 -10 -11 -11 -11 -11 -10 -10 -11 -12 -12 -12 -12 -13 -13 -14
-7 -7 -7 -7 -7 -7 -6 -6 -6 -5 -5 -5 -6 -6 -7 -7 -7 -7 -7 -8 -10 -10 -10 -10 -10 -10 -10 -11 -11 -11 -11 -11 -11 -11 -11 -11 -12 -12 -12 -13 -14 -14 -14
-7 -8 -8 -8 -7 -7 -6 -6 -6 -6 -6 -6 -6 -7 -8 -8 -9 -7 -9 -9 -10 -10 -11 -10 -10 -11 -11 -11 -11 -11 -12 -12 -12 -12 -12 -12 -12 -12 -13 -14 -14 -14 -15
-8 -8 -8 -8 -7 -7 -7 -7 -7 -6 -6 -6 -6 -6 -8 -8 -9 -8 -9 -10 -10 -11 -11 -11 -11 -11 -11 -11 -12 -12 -12 -12 -12 -13 -12 -13 -13 -13 -14 -15 -14 -14 -15
-8 -9 -9 -8 -7 -7 -7 -7 -7 -7 -6 -6 -6 -6 -8 -8 -9 -9 -9 -10 -12 -12 -11 -11 -11 -11 -11 -12 -12 -11 -12 -12 -13 -13 -13 -13 -13 -13 -14 -15 -16 -16 -17

GFSMW_700_temp_201.txt.gz
Temp
10 10 10 9 9 10 9 9 9 9 9 8 8 8 9 8 8 8 7 7 7 7 7 7 6 5 5 5 5 4 4 4 4 3 3 3 3 3 3 3 3 3 3
10 10 9 9 9 9 9 9 9 9 9 8 8 8 8 8 8 7 7 6 6 6 6 6 5 5 5 5 4 4 4 4 3 3 3 3 3 2 2 2 2 2 2
10 10 9 9 9 9 9 9 9 8 8 8 8 7 7 6 7 8 7 6 6 5 6 6 5 5 5 4 4 4 4 3 3 3 2 2 2 2 2 1 1 1 1
9 9 9 9 9 9 9 9 9 8 8 8 8 7 7 7 7 8 7 6 5 5 5 5 4 5 4 4 3 3 3 3 2 2 2 2 1 1 1 1 1 1 1
8 9 9 9 9 8 8 8 6 6 6 6 7 7 7 6 6 6 6 6 6 5 4 4 4 4 4 3 3 3 2 2 2 2 1 1 1 0 0 0 0 -0 -0
6 6 8 9 7 7 7 7 6 5 5 5 6 6 6 6 6 6 6 6 5 5 4 4 3 3 3 3 3 2 2 2 1 1 1 0 0 -0 -0 -1 -1 -1 -1
1 4 4 7 7 5 5 5 5 5 4 4 4 4 5 5 5 5 5 5 5 4 4 4 3 3 2 2 2 1 1 1 0 -0 -0 -1 -1 -1 -1 -2 -2 -2 -2
0 -0 1 2 4 5 3 4 4 3 2 3 3 4 3 2 3 4 4 3 3 2 2 2 2 2 2 1 -1 -0 -1 -1 -1 -1 -1 -1 -2 -2 -2 -3 -3 -3 -3
-2 -2 -2 -2 1 3 3 2 2 2 2 3 4 2 2 1 1 1 1 1 2 2 2 2 2 2 -0 -1 -1 -2 -4 -2 -2 -2 -2 -3 -3 -3 -3 -4 -5 -5 -6
-2 -2 -3 -3 -3 -2 -3 -1 1 2 1 1 1 2 3 1 1 1 0 1 1 1 1 2 2 1 1 0 -0 -4 -5 -5 -6 -3 -5 -5 -5 -5 -6 -6 -5 -5 -7
-3 -4 -4 -3 -3 -3 -3 -2 -2 -1 -0 0 1 1 1 -0 0 -0 -0 1 2 2 1 0 1 0 -0 -1 -1 -1 -2 -2 -5 -6 -6 -7 -7 -7 -6 -6 -6 -6 -6
-3 -3 -3 -3 -3 -3 -1 -2 -3 -2 -1 -1 0 -0 -1 -1 -0 0 -0 -1 -0 0 -0 -0 -1 -1 -0 -0 -1 -2 -2 -3 -4 -5 -6 -7 -8 -7 -7 -7 -6 -6 -6
-2 -3 -3 -3 -2 -3 -2 -3 -3 -3 -2 -3 -3 -1 -1 -1 -2 -2 -2 -1 -1 -1 -0 -1 -2 -1 -1 -1 -2 -3 -4 -4 -5 -6 -7 -8 -8 -7 -7 -7 -7 -6 -6
-3 -3 -3 -3 -3 -4 -4 -4 -4 -3 -3 -2 -1 -1 -1 -1 -1 -1 -1 -1 -1 -1 -1 -1 -3 -3 -3 -3 -4 -4 -5 -5 -7 -7 -9 -8 -8 -7 -7 -7 -7 -7 -7
-3 -3 -3 -4 -3 -3 -3 -4 -4 -4 -3 -3 -3 -2 -1 -1 -1 -0 -1 -1 -1 -1 -1 -2 -3 -4 -4 -4 -5 -5 -6 -6 -8 -8 -8 -8 -7 -8 -8 -8 -8 -8 -8
-4 -3 -3 -4 -4 -4 -4 -4 -4 -4 -4 -3 -2 -4 -2 0 -0 -1 -2 -2 -2 -2 -2 -2 -3 -4 -4 -4 -5 -6 -6 -7 -7 -7 -8 -8 -8 -8 -9 -9 -8 -8 -8
-4 -4 -4 -4 -4 -4 -4 -5 -5 -5 -5 -5 -4 -4 -4 -4 -4 -4 -4 -4 -4 -3 -3 -3 -3 -4 -5 -5 -6 -6 -7 -7 -8 -8 -8 -8 -9 -9 -9 -9 -9 -9 -10
-5 -5 -5 -5 -4 -4 -5 -5 -6 -5 -5 -5 -5 -5 -5 -5 -5 -4 -4 -4 -4 -4 -4 -4 -4 -5 -5 -6 -7 -7 -8 -8 -8 -8 -9 -9 -9 -9 -10 -10 -10 -10 -10
-6 -6 -6 -6 -6 -6 -6 -6 -6 -5 -5 -4 -5 -5 -5 -5 -5 -4 -4 -4 -4 -4 -5 -5 -5 -7 -7 -8 -8 -8 -8 -8 -9 -9 -10 -10 -10 -10 -10 -10 -10 -11 -11
-7 -7 -7 -7 -6 -6 -7 -7 -6 -6 -5 -5 -5 -5 -5 -5 -6 -6 -6 -5 -5 -5 -5 -5 -6 -8 -8 -9 -9 -9 -9 -10 -10 -10 -10 -10 -11 -11 -11 -11 -11 -11 -11
-8 -8 -7 -7 -7 -7 -7 -7 -6 -6 -6 -5 -5 -5 -5 -5 -6 -6 -7 -7 -6 -6 -6 -6 -8 -9 -9 -9 -9 -10 -10 -10 -10 -10 -11 -11 -11 -11 -11 -12 -11 -12 -12
-8 -7 -7 -7 -7 -7 -6 -7 -7 -7 -6 -6 -5 -6 -6 -6 -6 -6 -7 -6 -7 -6 -8 -8 -9 -10 -10 -10 -10 -10 -10 -11 -11 -11 -11 -11 -12 -12 -11 -12 -12 -12 -13
-8 -9 -8 -8 -8 -7 -8 -8 -7 -6 -6 -6 -6 -6 -6 -5 -6 -7 -7 -6 -6 -8 -8 -10 -10 -10 -10 -11 -11 -11 -11 -11 -11 -11 -11 -12 -12 -12 -12 -12 -12 -13 -14
-9 -9 -9 -8 -7 -8 -8 -8 -7 -7 -7 -6 -6 -6 -6 -6 -7 -8 -8 -9 -9 -9 -10 -11 -10 -10 -11 -11 -11 -11 -11 -12 -12 -12 -11 -11 -12 -12 -13 -13 -13 -13 -14
-9 -10 -9 -9 -7 -8 -8 -8 -7 -7 -7 -7 -6 -7 -6 -7 -9 -10 -9 -9 -9 -10 -10 -10 -11 -11 -11 -12 -12 -12 -12 -12 -12 -12 -12 -12 -13 -13 -13 -13 -14 -14 -15
-9 -9 -9 -9 -9 -8 -8 -8 -7 -8 -7 -7 -7 -6 -7 -8 -9 -10 -10 -10 -11 -11 -11 -11 -12 -12 -12 -12 -12 -12 -12 -12 -12 -12 -12 -13 -13 -14 -14 -14 -14 -14 -14

GFSMW_700_temp_204.txt.gz
Temp
10 10 10 10 10 10 10 9 9 9 9 9 9 9 10 10 9 8 8 7 6 6 6 6 6 6 5 5 5 5 5 5 4 4 4 4 3 4 3 3 3 3 3
10 10 10 10 10 10 10 9 10 9 9 9 9 8 9 9 8 8 8 7 6 6 6 6 6 5 5 5 5 5 5 4 4 4 4 4 4 4 3 2 2 2 2
9 9 9 10 9 9 9 9 9 9 9 8 8 8 8 7 7 7 7 7 7 6 5 5 5 5 4 4 4 4 4 4 3 3 3 3 3 3 3 2 2 2 1
8 8 9 9 9 9 9 8 9 9 9 8 7 7 7 7 7 7 7 7 6 6 5 5 5 4 4 4 3 3 3 3 3 3 2 2 2 2 2 2 1 1 1
8 8 8 9 9 9 9 8 6 6 7 6 6 5 5 5 6 6 6 5 5 5 4 5 5 4 4 3 3 3 2 2 2 2 2 1 1 1 1 1 0 0 -0
6 7 8 8 9 8 8 7 7 6 5 5 5 5 5 4 4 4 5 5 5 4 3 4 4 3 3 3 2 2 1 1 1 1 1 0 -0 -0 -0 -0 -1 -1 -1
3 5 6 7 7 8 5 5 5 5 5 5 5 4 4 3 3 4 3 3 3 4 3 3 4 3 3 2 1 0 -1 -1 0 -0 -0 -0 -1 -1 -1 -1 -2 -2 -2
2 2 1 2 4 3 5 4 4 4 4 4 4 3 2 2 2 3 3 2 2 2 2 2 2 2 2 2 0 -0 -1 -2 -2 -1 -1 -1 -2 -2 -3 -3 -3 -4 -5
-1 -1 0 0 0 0 3 4 3 3 3 3 4 3 3 1 3 2 2 2 2 2 2 2 2 2 2 2 1 -1 -1 -2 -4 -5 -3 -3 -3 -4 -5 -4 -4 -5 -5
-2 -2 -2 -2 -1 -1 0 1 2 2 1 2 1 0 0 0 2 2 1 0 -0 1 0 1 1 1 1 1 0 -2 -4 -4 -2 -3 -5 -5 -4 -5 -6 -6 -5 -7 -6
-3 -3 -2 -2 -1 -0 -1 -0 -1 -1 -2 -1 -1 -1 -1 -0 -1 0 1 0 -0 0 -1 -0 -0 0 -0 -1 -1 -1 -1 -2 -3 -2 -3 -4 -6 -7 -6 -7 -7 -8 -7
-3 -3 -3 -3 -2 -1 -1 0 0 -1 -1 -2 -2 -1 -4 -2 -2 -1 -1 -1 -0 -1 -1 -1 -1 -1 -1 -1 -2 -2 -2 -2 -3 -3 -3 -4 -5 -5 -7 -6 -9 -7 -7
-3 -3 -3 -3 -3 -3 -2 -2 -3 -3 -1 -2 -3 -3 -2 -2 -2 -3 -2 -2 -2 -2 -2 -1 -1 -2 -2 -2 -2 -2 -3 -3 -4 -4 -4 -5 -5 -6 -7 -6 -6 -7 -7
-3 -3 -3 -3 -4 -3 -3 -3 -4 -4 -4 -4 -4 -4 -3 -3 -3 -3 -4 -4 -3 -3 -3 -3 -3 -3 -3 -3 -3 -3 -4 -4 -4 -5 -5 -5 -6 -6 -6 -7 -8 -8 -8
-4 -3 -3 -3 -4 -4 -3 -4 -4 -4 -4 -4 -4 -4 -4 -4 -3 -2 -3 -3 -3 -2 -2 -3 -2 -2 -3 -4 -4 -4 -4 -4 -5 -5 -6 -6 -7 -7 -8 -9 -8 -9 -9
-5 -4 -4 -4 -4 -4 -4 -4 -4 -4 -4 -3 -4 -4 -4 -4 -4 -4 -4 -4 -4 -3 -1 -2 -3 -3 -3 -5 -5 -5 -5 -6 -6 -6 -7 -6 -7 -9 -9 -9 -9 -9 -9
-5 -5 -5 -5 -4 -4 -4 -4 -4 -4 -4 -4 -4 -5 -4 -4 -4 -4 -5 -4 -4 -4 -4 -4 -4 -4 -5 -6 -6 -6 -7 -7 -7 -7 -7 -8 -9 -9 -9 -9 -9 -9 -9
-6 -6 -5 -5 -5 -5 -5 -5 -5 -5 -6 -5 -5 -6 -5 -5 -5 -4 -5 -5 -5 -4 -4 -4 -4 -5 -6 -6 -6 -7 -7 -8 -8 -8 -9 -9 -9 -10 -10 -10 -10 -10 -10
-7 -6 -6 -7 -6 -6 -6 -6 -6 -6 -6 -5 -6 -6 -5 -5 -5 -5 -5 -5 -5 -5 -4 -5 -5 -5 -6 -6 -7 -7 -8 -8 -8 -9 -9 -10 -10 -10 -10 -10 -11 -11 -10
-7 -7 -7 -7 -7 -7 -7 -7 -6 -6 -7 -6 -6 -7 -6 -5 -5 -5 -5 -5 -6 -6 -5 -5 -6 -6 -7 -7 -8 -8 -8 -9 -9 -9 -10 -10 -10 -10 -11 -11 -11 -11 -11
-8 -8 -8 -8 -7 -7 -7 -7 -7 -6 -6 -6 -7 -6 -6 -5 -5 -5 -5 -6 -6 -6 -6 -7 -7 -6 -7 -8 -9 -9 -9 -9 -10 -10 -10 -11 -11 -11 -11 -12 -12 -11 -12
-9 -9 -9 -8 -8 -8 -8 -8 -7 -7 -7 -7 -7 -6 -6 -6 -6 -6 -6 -6 -6 -7 -6 -7 -7 -7 -8 -8 -9 -10 -10 -10 -10 -11 -11 -11 -11 -11 -12 -11 -11 -12 -12
-9 -9 -9 -9 -9 -9 -8 -8 -8 -7 -8 -7 -7 -7 -7 -6 -6 -6 -6 -6 -7 -7 -7 -7 -7 -7 -9 -9 -9 -10 -10 -11 -11 -11 -11 -12 -12 -11 -12 -12 -12 -12 -12
-9 -9 -9 -9 -10 -9 -9 -9 -8 -8 -8 -7 -7 -7 -6 -7 -6 -6 -7 -7 -7 -8 -7 -7 -8 -9 -10 -10 -10 -11 -11 -11 -11 -12 -12 -12 -12 -12 -12 -12 -12 -13 -13
-10 -9 -10 -9 -10 -10 -9 -9 -9 -8 -8 -7 -7 -7 -7 -6 -6 -6 -7 -8 -8 -9 -9 -10 -10 -10 -10 -11 -11 -12 -12 -12 -12 -12 -12 -12 -12 -12 -12 -12 -13 -13 -14
-10 -9 -10 -10 -10 -10 -9 -9 -9 -8 -8 -8 -7 -7 -7 -7 -6 -8 -9 -9 -10 -11 -10 -10 -11 -11 -11 -11 -12 -12 -12 -12 -12 -12 -12 -12 -12 -13 -13 -13 -14 -14 -15

GFSMW_700_temp_210.txt.gz
Temp
9 9 9 9 9 9 9 10 10 10 10 9 9 8 8 7 7 7 8 8 8 7 6 4 5 5 5 5 5 5 4 4 5 4 4 4 4 4 4 4 4 4 3
8 8 8 8 8 8 8 9 9 9 9 9 9 9 7 7 7 6 6 7 7 7 7 5 4 3 4 5 5 5 4 4 4 4 4 4 4 4 4 3 3 3 3
8 8 8 7 7 7 7 7 7 8 8 8 9 7 8 7 7 7 7 7 7 7 7 6 5 4 5 4 4 5 4 5 4 4 3 4 4 3 3 3 3 2 2
6 6 7 7 7 7 7 6 6 6 7 7 8 8 6 7 7 7 6 6 6 5 5 6 4 5 5 4 3 4 3 4 4 3 3 3 3 3 2 2 2 2 2
5 5 5 5 4 5 5 4 5 5 5 6 6 5 5 5 5 6 6 6 5 5 5 4 4 4 4 3 2 3 3 3 3 3 3 3 2 2 2 2 1 1 1
4 3 3 3 3 3 3 3 3 3 4 4 4 4 3 5 4 5 5 5 5 4 5 4 4 4 4 4 2 2 2 1 2 3 3 3 2 2 1 0 -0 -0 -0
2 2 2 2 1 1 2 2 2 3 3 2 3 3 4 3 3 4 3 4 4 4 4 4 3 5 3 4 3 2 1 1 2 2 2 2 1 1 1 0 -1 -1 -1
1 1 1 1 1 1 1 1 1 1 2 2 2 1 2 3 1 2 3 3 3 3 3 2 1 2 3 3 3 2 1 0 -0 0 1 0 -0 -0 -0 -0 -1 -2 -2
-0 -0 -0 -0 -0 0 0 0 1 0 0 0 0 1 2 3 2 2 2 1 1 1 1 1 1 1 1 2 2 0 -0 -1 -1 -2 -2 -0 -2 -1 -1 -1 -1 -2 -2
-1 -1 -1 -1 -1 -1 -1 -1 -1 -1 -1 -1 0 0 1 1 2 2 0 1 -0 -1 -1 0 1 1 -1 -1 -0 -1 -0 -1 -2 -1 -3 -2 -3 -2 -3 -3 -2 -3 -5
-2 -3 -3 -2 -3 -3 -3 -3 -2 -2 -2 -2 -1 -1 -1 -1 -1 -2 -2 -1 -1 -1 -2 -0 -1 -1 -1 -1 -2 -2 -2 -1 -1 -2 -3 -3 -3 -3 -5 -5 -6 -5 -5
-3 -3 -3 -3 -3 -3 -3 -3 -3 -3 -3 -3 -3 -3 -3 -3 -3 -4 -3 -3 -2 -2 -1 -2 -2 -1 -2 -2 -3 -3 -3 -2 -2 -2 -4 -4 -3 -3 -4 -5 -5 -5 -5
-4 -3 -3 -4 -3 -4 -3 -3 -4 -4 -4 -3 -3 -4 -4 -4 -4 -3 -4 -4 -3 -3 -3 -2 -2 -2 -2 -3 -3 -4 -4 -4 -4 -4 -4 -5 -4 -5 -5 -5 -6 -6 -6
-6 -5 -5 -5 -5 -4 -4 -4 -4 -4 -4 -4 -4 -4 -4 -4 -4 -4 -4 -4 -4 -4 -4 -3 -3 -3 -3 -3 -3 -3 -4 -4 -4 -4 -4 -4 -5 -6 -6 -6 -6 -6 -6
-6 -6 -6 -6 -6 -5 -5 -5 -5 -5 -5 -5 -5 -5 -4 -4 -4 -4 -4 -5 -5 -5 -5 -4 -4 -4 -3 -3 -4 -4 -4 -4 -5 -5 -5 -5 -5 -5 -5 -5 -5 -6 -6
-7 -7 -6 -6 -6 -6 -5 -5 -5 -5 -5 -6 -6 -6 -5 -5 -4 -5 -4 -5 -5 -5 -5 -5 -4 -5 -5 -4 -4 -4 -4 -5 -5 -6 -6 -6 -6 -6 -6 -6 -6 -6 -7
-7 -7 -7 -7 -7 -7 -7 -7 -7 -7 -6 -6 -6 -6 -6 -5 -5 -5 -5 -6 -5 -5 -5 -5 -5 -5 -5 -5 -5 -5 -5 -5 -5 -5 -6 -6 -6 -6 -7 -7 -7 -7 -8
-8 -8 -8 -8 -8 -8 -8 -7 -7 -7 -7 -7 -7 -7 -6 -6 -6 -5 -6 -6 -6 -5 -5 -5 -5 -5 -4 -5 -5 -5 -5 -5 -6 -6 -7 -7 -6 -7 -7 -8 -8 -8 -9
-9 -9 -8 -8 -8 -8 -8 -8 -7 -7 -7 -7 -7 -7 -7 -7 -6 -6 -5 -6 -6 -6 -6 -5 -5 -6 -6 -5 -6 -5 -5 -6 -6 -6 -7 -6 -6 -7 -7 -8 -8 -9 -9
-8 -9 -9 -8 -8 -8 -8 -8 -8 -8 -7 -8 -8 -8 -8 -7 -7 -7 -6 -6 -6 -6 -6 -6 -6 -6 -6 -6 -6 -6 -6 -6 -7 -7 -7 -6 -7 -7 -8 -8 -9 -9 -10
-10 -10 -10 -10 -10 -9 -10 -10 -9 -9 -9 -9 -8 -8 -8 -8 -8 -8 -7 -7 -7 -6 -6 -6 -6 -7 -7 -6 -6 -6 -6 -6 -7 -7 -8 -8 -8 -8 -9 -9 -10 -10 -10
-10 -10 -10 -10 -10 -10 -10 -9 -9 -9 -9 -9 -9 -9 -9 -9 -8 -8 -8 -8 -7 -7 -6 -6 -6 -7 -6 -7 -7 -7 -7 -7 -7 -8 -8 -8 -8 -9 -9 -10 -10 -10 -10
-9 -9 -10 -10 -10 -10 -10 -10 -10 -10 -10 -9 -9 -9 -9 -9 -9 -8 -8 -8 -7 -7 -6 -6 -7 -7 -7 -7 -7 -7 -7 -7 -8 -8 -8 -9 -9 -9 -10 -10 -10 -11 -11
-10 -10 -10 -9 -9 -9 -10 -10 -10 -10 -10 -9 -9 -10 -10 -9 -9 -8 -8 -8 -8 -7 -7 -7 -7 -7 -8 -8 -7 -7 -8 -8 -8 -8 -8 -9 -10 -10 -10 -11 -11 -11 -11
-10 -10 -10 -10 -10 -10 -10 -10 -10 -10 -10 -10 -10 -10 -9 -9 -9 -8 -8 -8 -8 -7 -7 -7 -7 -8 -8 -8 -7 -9 -8 -8 -9 -9 -10 -10 -11 -11 -11 -11 -12 -12 -12
-11 -10 -10 -10 -10 -10 -10 -10 -10 -10 -10 -10 -10 -10 -10 -9 -9 -8 -8 -8 -8 -7 -7 -7 -8 -9 -8 -8 -9 -9 -10 -10 -10 -10 -11 -11 -11 -12 -12 -12 -12 -12 -12

GFSMW_700_temp_213.txt.gz
Temp
9 9 9 8 8 8 9 9 9 9 9 8 8 8 8 8 7 7 7 6 6 6 6 6 6 5 4 4 4 4 4 5 5 5 5 5 5 5 4 4 4 4 4
7 7 7 7 7 7 7 7 7 7 8 8 8 8 8 8 7 7 7 7 7 6 6 6 6 5 4 3 3 4 4 3 5 7 4 5 4 5 5 4 4 4 3
6 7 6 6 7 6 6 7 7 7 7 7 7 7 7 6 6 7 7 7 6 6 5 6 6 6 6 4 3 3 4 5 5 6 5 5 5 5 4 4 4 3 3
5 5 5 5 5 5 5 5 4 4 4 4 4 4 5 5 5 4 5 5 7 7 6 5 5 5 5 4 4 3 3 4 4 5 4 5 5 5 4 4 4 3 3
4 4 4 4 4 4 4 3 3 4 4 4 4 5 5 4 4 4 3 4 5 6 5 6 5 4 3 4 4 4 4 3 3 4 4 4 4 5 4 3 4 3 3
3 3 3 3 2 2 2 2 2 3 3 3 3 3 4 4 3 3 4 3 3 3 4 4 5 4 4 3 3 4 3 3 3 3 3 4 4 4 3 3 2 2 2
2 2 2 1 1 1 1 1 1 1 1 1 1 1 2 2 3 2 2 2 3 2 2 3 2 2 3 3 4 4 3 2 1 1 2 3 3 2 1 1 1 1 1
1 1 0 0 0 0 0 0 0 0 0 0 0 0 0 1 1 2 2 2 2 2 2 1 2 1 0 2 2 2 1 1 1 1 -3 1 -0 2 1 -0 0 -0 0
-0 -0 -1 -1 -1 -1 -1 -2 -1 -1 -1 -1 -1 -1 -1 -0 0 1 1 1 2 1 2 2 2 2 0 1 2 1 2 1 1 0 -1 -3 -3 -1 -2 -2 -1 -1 -1
-1 -2 -1 -1 -2 -2 -2 -2 -2 -2 -2 -2 -2 -2 -2 -2 -1 -1 -1 -0 1 0 -1 -1 1 0 -1 -0 1 0 1 0 0 0 -1 -3 -5 -5 -4 -2 -2 -2 -2
-2 -2 -3 -3 -3 -3 -3 -3 -3 -3 -3 -3 -3 -3 -2 -2 -3 -4 -4 -4 -3 -3 -2 -2 -2 -1 -0 -1 0 -1 -0 -0 -1 -2 -1 -2 -4 -4 -5 -4 -2 -3 -2
-4 -4 -4 -3 -3 -4 -4 -3 -3 -3 -3 -3 -4 -3 -4 -3 -3 -4 -4 -4 -4 -4 -3 -3 -3 -2 -1 -2 -3 -3 -3 -3 -4 -3 -3 -3 -3 -3 -4 -5 -5 -6 -5
-5 -5 -5 -5 -5 -5 -5 -5 -5 -4 -4 -4 -4 -4 -4 -4 -4 -4 -5 -5 -5 -5 -4 -4 -4 -4 -3 -3 -3 -3 -3 -4 -3 -4 -4 -4 -4 -5 -5 -5 -6 -5 -5
-5 -6 -6 -6 -6 -6 -6 -6 -5 -5 -5 -5 -5 -5 -5 -4 -4 -4 -4 -5 -5 -5 -5 -5 -5 -4 -4 -4 -4 -4 -4 -4 -5 -5 -5 -5 -5 -5 -6 -6 -6 -6 -6
-7 -7 -7 -7 -6 -6 -6 -6 -6 -6 -6 -5 -5 -5 -5 -5 -5 -4 -4 -6 -6 -5 -5 -5 -5 -5 -4 -4 -4 -4 -4 -4 -5 -5 -6 -6 -6 -6 -6 -7 -7 -7 -7
-8 -8 -8 -7 -7 -8 -8 -7 -7 -7 -7 -7 -7 -7 -6 -6 -6 -5 -5 -6 -6 -6 -5 -6 -5 -5 -5 -4 -5 -5 -4 -5 -5 -5 -5 -6 -6 -6 -6 -6 -6 -6 -7
-8 -8 -8 -8 -8 -8 -8 -8 -8 -8 -8 -8 -7 -7 -7 -7 -7 -6 -6 -6 -6 -6 -6 -6 -5 -5 -5 -4 -5 -5 -5 -5 -5 -5 -5 -6 -6 -6 -6 -6 -6 -6 -6
-9 -9 -9 -9 -8 -8 -8 -8 -8 -8 -8 -8 -8 -7 -7 -7 -7 -7 -7 -6 -6 -7 -7 -6 -6 -5 -5 -5 -5 -5 -5 -5 -5 -6 -6 -6 -6 -6 -6 -6 -6 -6 -7
-9 -9 -9 -9 -9 -9 -9 -9 -8 -8 -8 -8 -8 -8 -7 -7 -7 -7 -7 -7 -7 -6 -7 -6 -6 -6 -5 -6 -6 -6 -5 -5 -6 -6 -6 -6 -6 -6 -6 -6 -6 -7 -7
-10 -10 -9 -10 -10 -9 -9 -10 -10 -9 -9 -9 -9 -9 -8 -8 -8 -8 -8 -8 -7 -7 -7 -7 -6 -6 -6 -6 -6 -6 -5 -5 -5 -6 -6 -6 -6 -6 -7 -7 -7 -7 -8
-10 -10 -10 -10 -10 -10 -10 -10 -10 -10 -10 -10 -10 -9 -9 -9 -9 -8 -8 -8 -8 -8 -7 -7 -7 -7 -6 -6 -6 -6 -6 -6 -6 -6 -7 -7 -7 -7 -7 -7 -8 -8 -8
-10 -10 -10 -9 -10 -10 -10 -10 -10 -10 -10 -10 -10 -10 -10 -10 -9 -9 -9 -9 -8 -8 -8 -8 -7 -7 -7 -7 -7 -7 -7 -7 -6 -7 -7 -8 -7 -8 -8 -8 -9 -9 -10
-10 -10 -10 -10 -10 -10 -10 -10 -10 -10 -10 -10 -10 -10 -10 -9 -10 -10 -10 -9 -9 -8 -8 -8 -8 -7 -7 -7 -7 -7 -7 -7 -7 -7 -8 -8 -8 -8 -8 -9 -10 -10 -10
-10 -10 -10 -10 -10 -10 -10 -10 -10 -10 -10 -9 -10 -10 -10 -10 -10 -10 -10 -9 -9 -9 -8 -8 -8 -8 -8 -8 -7 -7 -8 -7 -8 -8 -8 -8 -9 -9 -9 -10 -10 -10 -11
-10 -11 -11 -11 -11 -11 -10 -10 -11 -10 -9 -10 -10 -10 -10 -10 -10 -10 -10 -10 -9 -9 -8 -8 -8 -8 -8 -8 -9 -8 -8 -8 -8 -8 -8 -8 -9 -9 -10 -10 -10 -11 -12
-11 -11 -11 -11 -11 -10 -10 -10 -10 -10 -10 -10 -10 -10 -10 -10 -10 -10 -10 -9 -9 -9 -8 -8 -8 -8 -8 -9 -8 -9 -8 -8 -8 -8 -9 -10 -10 -11 -11 -11 -11 -12 -12